IBE6463 LEMD-SEQM

Flight info

Callsign IBE6463
Flight time 10h 36m
Altitude 31000
Route ZMR L155 ADORO/N0484F320 DCT BANAL/M083F320 DCT 42N020W 3930N03000W 3430N04000W/M083F340 27N050W 23N055W DCT BNJEE/N0489F360 DCT PPR DCT ITEGO UP533 PBL UW50 BNS UP533 BOKAN UP778 QIT
Aircraft A346/H-SDE2E3FGHIJ3J4J5M1RWXY/LB1D1

Departure

Time 2026-05-04 12:45
Airport Adolfo Suárez Madrid–Barajas Airport (LEMD)

Arrival

Time 2026-05-04 23:21
Airport Mariscal Sucre International Airport (SEQM)
Time Latitude Longitude Altitude Speed Heading
2026-05-04 11:51 40.49057 -3.56880 1966 ft 0 kts 89°
2026-05-04 12:27 40.49057 -3.56898 1975 ft 2 kts 90°
2026-05-04 12:28 40.49057 -3.56917 1975 ft 2 kts 89°
2026-05-04 12:28 40.49057 -3.56937 1975 ft 2 kts 90°
2026-05-04 12:28 40.49058 -3.56957 1975 ft 2 kts 90°
2026-05-04 12:28 40.49058 -3.56976 1975 ft 2 kts 90°
2026-05-04 12:29 40.49057 -3.56996 1975 ft 2 kts 62°
2026-05-04 12:29 40.49046 -3.57009 1975 ft 2 kts 13°
2026-05-04 12:29 40.49032 -3.57008 1975 ft 2 kts 349°
2026-05-04 12:29 40.49017 -3.57006 1975 ft 2 kts 356°
2026-05-04 12:30 40.49002 -3.57005 1975 ft 2 kts
2026-05-04 12:30 40.48987 -3.57006 1975 ft 2 kts
2026-05-04 12:30 40.48976 -3.57006 1975 ft 0 kts 359°
2026-05-04 12:30 40.48975 -3.57006 1975 ft 0 kts 359°
2026-05-04 12:31 40.48976 -3.57006 1975 ft 0 kts 359°
2026-05-04 12:35 40.48987 -3.57005 1975 ft 5 kts
2026-05-04 12:35 40.49046 -3.57017 1975 ft 8 kts 311°
2026-05-04 12:35 40.49056 -3.57085 1975 ft 1 kts 262°
2026-05-04 12:36 40.49055 -3.57096 1975 ft 4 kts 266°
2026-05-04 12:36 40.49055 -3.57180 1975 ft 13 kts 269°
2026-05-04 12:36 40.49007 -3.57234 1975 ft 10 kts 178°
2026-05-04 12:36 40.48928 -3.57232 1975 ft 11 kts 179°
2026-05-04 12:37 40.48843 -3.57231 1975 ft 12 kts 179°
2026-05-04 12:37 40.48752 -3.57231 1975 ft 13 kts 179°
2026-05-04 12:37 40.48690 -3.57275 1975 ft 10 kts 227°
2026-05-04 12:37 40.48643 -3.57354 1975 ft 11 kts 232°
2026-05-04 12:38 40.48598 -3.57431 1975 ft 3 kts 232°
2026-05-04 12:38 40.48597 -3.57432 1975 ft 0 kts 232°
2026-05-04 12:41 40.48584 -3.57455 1975 ft 9 kts 232°
2026-05-04 12:42 40.48514 -3.57559 1975 ft 17 kts 220°
2026-05-04 12:42 40.48467 -3.57584 1975 ft 1 kts 131°
2026-05-04 12:42 40.48450 -3.57565 1975 ft 1 kts 141°
2026-05-04 12:43 40.48387 -3.57500 1975 ft 38 kts 142°
2026-05-04 12:44 40.48008 -3.57114 1975 ft 99 kts 142°
2026-05-04 12:44 40.47311 -3.56404 1975 ft 151 kts 142°
2026-05-04 12:44 40.46360 -3.55436 1976 ft 194 kts 142°
2026-05-04 12:44 40.45229 -3.54247 2192 ft 211 kts 143°
2026-05-04 12:45 40.44051 -3.53104 2602 ft 213 kts 147°
2026-05-04 12:45 40.42868 -3.51957 3081 ft 216 kts 146°
2026-05-04 12:45 40.41661 -3.50776 3590 ft 218 kts 146°
2026-05-04 12:45 40.40469 -3.49581 4045 ft 215 kts 145°
2026-05-04 12:46 40.39290 -3.48385 4419 ft 214 kts 145°
2026-05-04 12:46 40.38108 -3.47173 4759 ft 215 kts 144°
2026-05-04 12:46 40.36926 -3.45957 5081 ft 218 kts 145°
2026-05-04 12:46 40.35719 -3.44735 5419 ft 220 kts 145°
2026-05-04 12:47 40.34493 -3.43528 5773 ft 221 kts 146°
2026-05-04 12:47 40.33268 -3.42324 6109 ft 222 kts 144°
2026-05-04 12:47 40.32039 -3.41087 6429 ft 223 kts 144°
2026-05-04 12:47 40.30817 -3.39820 6741 ft 224 kts 144°
2026-05-04 12:48 40.29591 -3.38548 6995 ft 228 kts 147°
2026-05-04 12:48 40.28148 -3.37810 7132 ft 228 kts 180°
2026-05-04 12:48 40.26607 -3.38266 7340 ft 232 kts 207°
2026-05-04 12:48 40.25123 -3.39230 7511 ft 245 kts 205°
2026-05-04 12:49 40.23525 -3.40184 7673 ft 261 kts 204°
2026-05-04 12:49 40.21840 -3.41213 7980 ft 270 kts 213°
2026-05-04 12:49 40.20543 -3.42968 8325 ft 276 kts 245°
2026-05-04 12:49 40.20084 -3.45355 8780 ft 277 kts 271°
2026-05-04 12:50 40.20325 -3.47877 9211 ft 282 kts 281°
2026-05-04 12:50 40.20728 -3.50424 9622 ft 287 kts 282°
2026-05-04 12:50 40.21177 -3.52966 10064 ft 291 kts 280°
2026-05-04 12:50 40.21541 -3.55556 10543 ft 293 kts 280°
2026-05-04 12:51 40.21970 -3.58205 10949 ft 298 kts 282°
2026-05-04 12:51 40.22376 -3.60877 11251 ft 306 kts 281°
2026-05-04 12:51 40.22779 -3.63665 11555 ft 313 kts 279°
2026-05-04 12:51 40.23198 -3.66481 11857 ft 320 kts 280°
2026-05-04 12:52 40.23626 -3.69343 12178 ft 327 kts 279°
2026-05-04 12:52 40.24073 -3.72330 12375 ft 339 kts 281°
2026-05-04 12:52 40.24624 -3.75367 12632 ft 349 kts 280°
2026-05-04 12:52 40.25061 -3.78560 12851 ft 360 kts 278°
2026-05-04 12:53 40.25474 -3.81793 13172 ft 368 kts 278°
2026-05-04 12:53 40.25913 -3.85102 13695 ft 370 kts 279°
2026-05-04 12:53 40.26366 -3.88400 14237 ft 370 kts 279°
2026-05-04 12:53 40.26828 -3.91709 14730 ft 372 kts 279°
2026-05-04 12:54 40.27303 -3.95081 15193 ft 375 kts 279°
2026-05-04 12:54 40.27774 -3.98416 15655 ft 378 kts 279°
2026-05-04 12:54 40.28255 -4.01800 16153 ft 379 kts 279°
2026-05-04 12:54 40.28736 -4.05192 16677 ft 380 kts 279°
2026-05-04 12:55 40.29222 -4.08617 17176 ft 382 kts 279°
2026-05-04 12:55 40.29719 -4.12034 17663 ft 383 kts 282°
2026-05-04 12:55 40.30630 -4.15290 18082 ft 389 kts 296°
2026-05-04 12:55 40.32135 -4.18247 18507 ft 394 kts 308°
2026-05-04 12:56 40.34095 -4.20771 18914 ft 399 kts 315°
2026-05-04 12:56 40.36175 -4.23204 19361 ft 402 kts 315°
2026-05-04 12:56 40.38278 -4.25657 19773 ft 404 kts 315°
2026-05-04 12:56 40.40367 -4.28101 20165 ft 407 kts 315°
2026-05-04 12:57 40.42487 -4.30587 20567 ft 408 kts 315°
2026-05-04 12:57 40.44618 -4.33092 20948 ft 411 kts 315°
2026-05-04 12:57 40.46762 -4.35618 21332 ft 414 kts 315°
2026-05-04 12:57 40.48896 -4.38135 21710 ft 416 kts 315°
2026-05-04 12:58 40.51038 -4.40666 22080 ft 418 kts 315°
2026-05-04 12:58 40.53207 -4.43229 22439 ft 421 kts 315°
2026-05-04 12:58 40.55405 -4.45832 22809 ft 423 kts 315°
2026-05-04 12:58 40.57590 -4.48421 23171 ft 425 kts 315°
2026-05-04 12:59 40.59775 -4.51013 23539 ft 426 kts 315°
2026-05-04 12:59 40.61972 -4.53622 23880 ft 428 kts 315°
2026-05-04 12:59 40.64189 -4.56255 24202 ft 430 kts 315°
2026-05-04 12:59 40.66423 -4.58913 24536 ft 432 kts 315°
2026-05-04 13:00 40.68637 -4.61548 24853 ft 433 kts 315°
2026-05-04 13:00 40.70898 -4.64243 25152 ft 436 kts 315°
2026-05-04 13:00 40.73132 -4.66908 25443 ft 438 kts 314°
2026-05-04 13:00 40.75374 -4.69587 25738 ft 440 kts 314°
2026-05-04 13:01 40.77644 -4.72300 26039 ft 441 kts 314°
2026-05-04 13:01 40.79934 -4.75039 26323 ft 443 kts 314°
2026-05-04 13:01 40.82210 -4.77764 26612 ft 445 kts 314°
2026-05-04 13:01 40.84512 -4.80523 26885 ft 447 kts 314°
2026-05-04 13:02 40.86805 -4.83276 27145 ft 448 kts 314°
2026-05-04 13:02 40.89127 -4.86065 27419 ft 450 kts 314°
2026-05-04 13:02 40.91440 -4.88846 27696 ft 451 kts 314°
2026-05-04 13:02 40.93727 -4.91598 28054 ft 450 kts 314°
2026-05-04 13:03 40.96037 -4.94378 28453 ft 448 kts 314°
2026-05-04 13:03 40.98347 -4.97164 28821 ft 447 kts 314°
2026-05-04 13:03 41.00642 -4.99932 29160 ft 446 kts 314°
2026-05-04 13:03 41.02925 -5.02691 29463 ft 446 kts 314°
2026-05-04 13:04 41.05207 -5.05450 29714 ft 447 kts 313°
2026-05-04 13:04 41.07512 -5.08241 29960 ft 448 kts 313°
2026-05-04 13:04 41.09798 -5.11012 30226 ft 448 kts 313°
2026-05-04 13:04 41.12103 -5.13809 30489 ft 448 kts 313°
2026-05-04 13:05 41.14407 -5.16608 30696 ft 449 kts 313°
2026-05-04 13:05 41.16708 -5.19407 30865 ft 451 kts 313°
2026-05-04 13:05 41.19036 -5.22241 30965 ft 452 kts 313°
2026-05-04 13:06 41.23663 -5.27881 30985 ft 452 kts 313°
2026-05-04 13:06 41.28306 -5.33550 30976 ft 453 kts 313°
2026-05-04 13:07 41.32936 -5.39212 30977 ft 453 kts 313°
2026-05-04 13:07 41.37557 -5.44881 30980 ft 454 kts 313°
2026-05-04 13:08 41.42186 -5.50571 30974 ft 454 kts 313°
2026-05-04 13:08 41.46831 -5.56296 30970 ft 453 kts 313°
2026-05-04 13:09 41.51434 -5.61980 30967 ft 453 kts 313°
2026-05-04 13:09 41.55751 -5.68038 30961 ft 447 kts 301°
2026-05-04 13:10 41.58463 -5.75393 30961 ft 441 kts 284°
2026-05-04 13:10 41.59356 -5.83357 30962 ft 436 kts 268°
2026-05-04 13:11 41.58416 -5.91344 30963 ft 436 kts 252°
2026-05-04 13:11 41.55724 -5.98587 30963 ft 439 kts 236°
2026-05-04 13:12 41.52153 -6.05128 30961 ft 437 kts 241°
2026-05-04 13:12 41.49786 -6.12538 30959 ft 435 kts 256°
2026-05-04 13:13 41.48943 -6.20552 30950 ft 435 kts 265°
2026-05-04 13:13 41.48771 -6.28589 30955 ft 436 kts 270°
2026-05-04 13:14 41.49175 -6.36620 30955 ft 437 kts 275°
2026-05-04 13:14 41.49933 -6.44649 30957 ft 436 kts 276°
2026-05-04 13:15 41.50704 -6.52714 30963 ft 437 kts 276°
2026-05-04 13:15 41.51467 -6.60736 30966 ft 437 kts 276°
2026-05-04 13:16 41.52227 -6.68782 30964 ft 437 kts 275°
2026-05-04 13:16 41.52994 -6.76857 31241 ft 439 kts 275°
2026-05-04 13:16 41.53374 -6.80869 31580 ft 435 kts 275°
2026-05-04 13:17 41.53748 -6.84870 31840 ft 434 kts 275°
2026-05-04 13:17 41.54119 -6.88863 31965 ft 434 kts 275°
2026-05-04 13:17 41.54492 -6.92891 31970 ft 434 kts 275°
2026-05-04 13:18 41.55223 -7.00850 31978 ft 435 kts 275°
2026-05-04 13:18 41.55955 -7.08885 31979 ft 434 kts 275°
2026-05-04 13:19 41.56675 -7.16853 31979 ft 434 kts 275°
2026-05-04 13:19 41.57390 -7.24855 31980 ft 434 kts 275°
2026-05-04 13:20 41.58101 -7.32866 31982 ft 433 kts 275°
2026-05-04 13:20 41.58804 -7.40823 31985 ft 433 kts 275°
2026-05-04 13:21 41.59500 -7.48777 31991 ft 433 kts 275°
2026-05-04 13:21 41.60194 -7.56796 31998 ft 432 kts 275°
2026-05-04 13:22 41.60878 -7.64771 31998 ft 432 kts 276°
2026-05-04 13:22 41.61557 -7.72731 32002 ft 432 kts 275°
2026-05-04 13:23 41.62232 -7.80698 31990 ft 431 kts 275°
2026-05-04 13:23 41.62896 -7.88628 32009 ft 431 kts 275°
2026-05-04 13:24 41.63562 -7.96617 32019 ft 430 kts 275°
2026-05-04 13:24 41.64217 -8.04549 32017 ft 430 kts 275°
2026-05-04 13:25 41.64758 -8.11171 32023 ft 430 kts 275°
2026-05-04 13:25 41.64793 -8.11595 32024 ft 430 kts 275°
2026-05-04 13:26 41.64823 -8.11966 32025 ft 430 kts 275°
2026-05-04 13:26 41.64853 -8.12338 32025 ft 430 kts 275°
2026-05-04 13:27 41.64888 -8.12762 32026 ft 430 kts 275°
2026-05-04 13:27 41.64922 -8.13187 32026 ft 430 kts 275°
2026-05-04 13:28 41.65035 -8.14561 32026 ft 430 kts 275°
2026-05-04 13:28 41.65677 -8.22493 32027 ft 429 kts 275°
2026-05-04 13:29 41.66311 -8.30416 32026 ft 430 kts 275°
2026-05-04 13:29 41.66942 -8.38336 32030 ft 430 kts 276°
2026-05-04 13:30 41.67569 -8.46297 32024 ft 430 kts 275°
2026-05-04 13:30 41.68189 -8.54237 32027 ft 430 kts 276°
2026-05-04 13:31 41.68807 -8.62220 32027 ft 430 kts 275°
2026-05-04 13:31 41.69410 -8.70111 32039 ft 429 kts 275°
2026-05-04 13:32 41.70014 -8.78060 32014 ft 430 kts 275°
2026-05-04 13:32 41.70611 -8.86005 32026 ft 429 kts 275°
2026-05-04 13:33 41.71203 -8.93943 32025 ft 429 kts 275°
2026-05-04 13:33 41.71788 -9.01863 32037 ft 430 kts 275°
2026-05-04 13:34 41.72369 -9.09821 32060 ft 430 kts 275°
2026-05-04 13:34 41.72944 -9.17749 32074 ft 429 kts 275°
2026-05-04 13:35 41.73794 -9.29630 32042 ft 429 kts 275°
2026-05-04 13:36 41.74353 -9.37544 32060 ft 429 kts 275°
2026-05-04 13:36 41.74910 -9.45499 32051 ft 429 kts 276°
2026-05-04 13:37 41.75460 -9.53443 32078 ft 429 kts 276°
2026-05-04 13:37 41.76002 -9.61350 32080 ft 428 kts 276°
2026-05-04 13:38 41.76540 -9.69280 32068 ft 429 kts 275°
2026-05-04 13:38 41.77072 -9.77206 32060 ft 429 kts 275°
2026-05-04 13:39 41.77600 -9.85158 32059 ft 429 kts 275°
2026-05-04 13:39 41.78124 -9.93119 32061 ft 429 kts 276°
2026-05-04 13:40 41.78641 -10.01074 32079 ft 429 kts 276°
2026-05-04 13:40 41.79152 -10.09000 32066 ft 429 kts 275°
2026-05-04 13:41 41.79657 -10.16925 32073 ft 429 kts 276°
2026-05-04 13:41 41.80158 -10.24854 32079 ft 429 kts 276°
2026-05-04 13:42 41.80899 -10.36817 32056 ft 429 kts 276°
2026-05-04 13:42 41.81386 -10.44763 32077 ft 429 kts 276°
2026-05-04 13:43 41.81866 -10.52697 32072 ft 429 kts 276°
2026-05-04 13:43 41.82341 -10.60641 32053 ft 429 kts 276°
2026-05-04 13:44 41.82810 -10.68587 32088 ft 429 kts 276°
2026-05-04 13:44 41.83275 -10.76538 32058 ft 429 kts 276°
2026-05-04 13:45 41.83733 -10.84485 32071 ft 430 kts 276°
2026-05-04 13:45 41.84188 -10.92448 32091 ft 430 kts 276°
2026-05-04 13:46 41.84639 -11.00462 32055 ft 431 kts 276°
2026-05-04 13:46 41.85082 -11.08404 32086 ft 429 kts 276°
2026-05-04 13:47 41.85519 -11.16381 32073 ft 430 kts 276°
2026-05-04 13:47 41.85952 -11.24357 32089 ft 429 kts 276°
2026-05-04 13:48 41.86378 -11.32280 32075 ft 429 kts 276°
2026-05-04 13:48 41.86799 -11.40258 32068 ft 430 kts 276°
2026-05-04 13:49 41.87215 -11.48255 32095 ft 430 kts 276°
2026-05-04 13:49 41.87624 -11.56205 32077 ft 430 kts 276°
2026-05-04 13:50 41.88028 -11.64187 32078 ft 430 kts 277°
2026-05-04 13:50 41.88429 -11.72184 32086 ft 430 kts 276°
2026-05-04 13:51 41.88821 -11.80117 32103 ft 428 kts 276°
2026-05-04 13:51 41.89209 -11.88098 32114 ft 429 kts 276°
2026-05-04 13:52 41.89780 -12.00036 32105 ft 428 kts 276°
2026-05-04 13:53 41.90152 -12.07972 32102 ft 428 kts 276°
2026-05-04 13:53 41.90519 -12.15910 32110 ft 427 kts 276°
2026-05-04 13:54 41.91058 -12.27768 32113 ft 426 kts 276°
2026-05-04 13:55 41.91584 -12.39668 32080 ft 428 kts 276°
2026-05-04 13:55 41.92101 -12.51621 32120 ft 427 kts 277°
2026-05-04 13:56 41.92437 -12.59549 32116 ft 428 kts 277°
2026-05-04 13:57 41.92933 -12.71487 32122 ft 428 kts 276°
2026-05-04 13:58 41.93573 -12.87392 32117 ft 427 kts 276°
2026-05-04 13:58 41.94038 -12.99303 32118 ft 427 kts 276°
2026-05-04 13:59 41.94344 -13.07257 32132 ft 427 kts 277°
2026-05-04 14:00 41.94791 -13.19177 32136 ft 426 kts 276°
2026-05-04 14:00 41.95221 -13.31047 32136 ft 427 kts 277°
2026-05-04 14:01 41.95504 -13.39006 32139 ft 427 kts 277°
2026-05-04 14:02 41.95914 -13.50904 32144 ft 427 kts 277°
2026-05-04 14:02 41.96186 -13.58893 32145 ft 427 kts 277°
2026-05-04 14:03 41.96442 -13.66820 32146 ft 427 kts 277°
2026-05-04 14:03 41.96707 -13.74758 32154 ft 427 kts 277°
2026-05-04 14:04 41.97078 -13.86702 32145 ft 427 kts 277°
2026-05-04 14:04 41.97319 -13.94631 32152 ft 426 kts 277°
2026-05-04 14:05 41.97677 -14.06533 32154 ft 427 kts 277°
2026-05-04 14:06 41.97903 -14.14490 32152 ft 427 kts 277°
2026-05-04 14:06 41.98127 -14.22424 32158 ft 426 kts 277°
2026-05-04 14:07 41.98353 -14.30405 32158 ft 427 kts 277°
2026-05-04 14:07 41.98564 -14.38307 32165 ft 427 kts 277°
2026-05-04 14:08 41.98769 -14.46268 32160 ft 427 kts 277°
2026-05-04 14:08 41.98972 -14.54246 32169 ft 427 kts 277°
2026-05-04 14:09 41.99263 -14.66207 32170 ft 427 kts 276°
2026-05-04 14:10 41.99541 -14.78136 32167 ft 427 kts 276°
2026-05-04 14:10 41.99720 -14.86140 32173 ft 427 kts 276°
2026-05-04 14:11 41.99892 -14.94099 32177 ft 429 kts 276°
2026-05-04 14:11 42.00153 -15.06109 32174 ft 429 kts 276°
2026-05-04 14:12 42.00325 -15.14098 32174 ft 430 kts 276°
2026-05-04 14:13 42.00568 -15.26102 32174 ft 428 kts 276°
2026-05-04 14:13 42.00721 -15.34097 32179 ft 429 kts 276°
2026-05-04 14:14 42.00868 -15.42074 32176 ft 429 kts 276°
2026-05-04 14:14 42.01080 -15.54076 32181 ft 429 kts 276°
2026-05-04 14:15 42.01340 -15.70074 32202 ft 430 kts 276°
2026-05-04 14:16 42.01523 -15.82132 32209 ft 431 kts 275°
2026-05-04 14:17 42.01692 -15.94141 32207 ft 432 kts 275°
2026-05-04 14:18 42.01849 -16.06219 32210 ft 431 kts 275°
2026-05-04 14:19 42.02039 -16.22284 32213 ft 431 kts 275°
2026-05-04 14:19 42.02124 -16.30305 32203 ft 431 kts 275°
2026-05-04 14:20 42.02204 -16.38339 32216 ft 431 kts 275°
2026-05-04 14:20 42.02279 -16.46403 32208 ft 430 kts 275°
2026-05-04 14:21 42.02381 -16.58393 32212 ft 430 kts 275°
2026-05-04 14:21 42.02441 -16.66429 32208 ft 430 kts 275°
2026-05-04 14:22 42.02496 -16.74408 32224 ft 429 kts 274°
2026-05-04 14:22 42.02544 -16.82425 32220 ft 429 kts 275°
2026-05-04 14:23 42.02611 -16.94420 32225 ft 430 kts 275°
2026-05-04 14:24 42.02650 -17.02421 32229 ft 429 kts 274°
2026-05-04 14:24 42.02679 -17.10410 32228 ft 429 kts 275°
2026-05-04 14:25 42.02703 -17.18408 32229 ft 429 kts 275°
2026-05-04 14:25 42.02732 -17.30436 32237 ft 430 kts 274°
2026-05-04 14:26 42.02742 -17.38446 32235 ft 430 kts 274°
2026-05-04 14:26 42.02750 -17.46476 32248 ft 430 kts 274°
2026-05-04 14:27 42.02745 -17.54467 32236 ft 430 kts 274°
2026-05-04 14:27 42.02738 -17.62507 32243 ft 430 kts 274°
2026-05-04 14:28 42.02732 -17.70524 32248 ft 432 kts 273°
2026-05-04 14:28 42.02712 -17.78553 32239 ft 432 kts 273°
2026-05-04 14:29 42.02660 -17.94688 32244 ft 433 kts 273°
2026-05-04 14:30 42.02626 -18.02776 32257 ft 433 kts 273°
2026-05-04 14:31 42.02565 -18.14856 32258 ft 433 kts 273°
2026-05-04 14:32 42.02459 -18.31020 32259 ft 433 kts 273°
2026-05-04 14:32 42.02401 -18.39110 32255 ft 434 kts 273°
2026-05-04 14:33 42.02331 -18.47202 32259 ft 434 kts 273°
2026-05-04 14:33 42.02269 -18.55276 32262 ft 433 kts 273°
2026-05-04 14:34 42.02185 -18.63380 32264 ft 434 kts 273°
2026-05-04 14:34 42.02105 -18.71489 32266 ft 435 kts 272°
2026-05-04 14:35 42.02023 -18.79596 32265 ft 435 kts 272°
2026-05-04 14:35 42.01930 -18.87693 32267 ft 436 kts 272°
2026-05-04 14:36 42.01831 -18.95801 32260 ft 436 kts 272°
2026-05-04 14:36 42.01725 -19.03954 32258 ft 436 kts 272°
2026-05-04 14:37 42.01614 -19.12089 32255 ft 436 kts 272°
2026-05-04 14:37 42.01496 -19.20209 32248 ft 437 kts 272°
2026-05-04 14:38 42.01372 -19.28343 32245 ft 437 kts 272°
2026-05-04 14:38 42.01243 -19.36496 32252 ft 437 kts 272°
2026-05-04 14:39 42.01105 -19.44665 32256 ft 438 kts 272°
2026-05-04 14:39 42.00966 -19.52788 32252 ft 438 kts 272°
2026-05-04 14:40 42.00739 -19.65112 32254 ft 439 kts 271°
2026-05-04 14:40 42.00579 -19.73279 32256 ft 440 kts 271°
2026-05-04 14:41 42.00413 -19.81512 32254 ft 441 kts 271°
2026-05-04 14:42 41.99789 -19.98001 32252 ft 445 kts 266°
2026-05-04 14:42 41.98737 -20.06165 32264 ft 447 kts 261°
2026-05-04 14:43 41.97185 -20.14228 32274 ft 448 kts 259°
2026-05-04 14:43 41.95569 -20.22310 32277 ft 448 kts 258°
2026-05-04 14:44 41.93956 -20.30336 32275 ft 448 kts 258°
2026-05-04 14:44 41.92329 -20.38403 32278 ft 448 kts 258°
2026-05-04 14:45 41.90694 -20.46480 32272 ft 449 kts 258°
2026-05-04 14:45 41.89055 -20.54534 32277 ft 449 kts 258°
2026-05-04 14:46 41.87412 -20.62581 32280 ft 450 kts 258°
2026-05-04 14:46 41.85753 -20.70668 32279 ft 451 kts 257°
2026-05-04 14:47 41.84088 -20.78754 32272 ft 451 kts 257°
2026-05-04 14:47 41.82421 -20.86827 32276 ft 452 kts 257°
2026-05-04 14:48 41.80743 -20.94916 32277 ft 452 kts 257°
2026-05-04 14:48 41.79065 -21.02971 32278 ft 453 kts 257°
2026-05-04 14:49 41.77371 -21.11068 32274 ft 453 kts 257°
2026-05-04 14:49 41.75664 -21.19203 32282 ft 453 kts 257°
2026-05-04 14:50 41.73968 -21.27246 32279 ft 453 kts 257°
2026-05-04 14:50 41.72252 -21.35358 32284 ft 453 kts 257°
2026-05-04 14:51 41.70542 -21.43413 32284 ft 453 kts 257°
2026-05-04 14:51 41.68818 -21.51500 32286 ft 454 kts 257°
2026-05-04 14:52 41.67078 -21.59625 32287 ft 454 kts 257°
2026-05-04 14:52 41.65341 -21.67716 32285 ft 455 kts 256°
2026-05-04 14:53 41.63595 -21.75812 32289 ft 455 kts 256°
2026-05-04 14:53 41.61841 -21.83920 32295 ft 455 kts 256°
2026-05-04 14:54 41.60082 -21.92018 32290 ft 455 kts 256°
2026-05-04 14:54 41.58316 -22.00116 32294 ft 455 kts 256°
2026-05-04 14:55 41.56543 -22.08216 32297 ft 455 kts 256°
2026-05-04 14:55 41.54767 -22.16299 32297 ft 456 kts 256°
2026-05-04 14:56 41.52977 -22.24418 32300 ft 456 kts 256°
2026-05-04 14:56 41.51189 -22.32500 32302 ft 456 kts 256°
2026-05-04 14:57 41.49396 -22.40576 32300 ft 457 kts 255°
2026-05-04 14:57 41.47586 -22.48691 32305 ft 457 kts 255°
2026-05-04 14:58 41.45776 -22.56777 32309 ft 457 kts 255°
2026-05-04 14:58 41.43950 -22.64905 32533 ft 461 kts 255°
2026-05-04 14:59 41.43032 -22.68973 32833 ft 460 kts 255°
2026-05-04 14:59 41.42117 -22.73030 33126 ft 459 kts 255°
2026-05-04 14:59 41.40279 -22.81153 33650 ft 458 kts 254°
2026-05-04 15:00 41.39363 -22.85191 33896 ft 457 kts 255°
2026-05-04 15:00 41.38447 -22.89219 34148 ft 456 kts 254°
2026-05-04 15:00 41.37530 -22.93246 34380 ft 456 kts 254°
2026-05-04 15:01 41.35685 -23.01319 34751 ft 455 kts 254°
2026-05-04 15:01 41.34776 -23.05286 34923 ft 455 kts 254°
2026-05-04 15:01 41.33844 -23.09351 35088 ft 455 kts 254°
2026-05-04 15:01 41.32933 -23.13312 35249 ft 455 kts 254°
2026-05-04 15:02 41.31998 -23.17363 35413 ft 455 kts 254°
2026-05-04 15:02 41.31086 -23.21321 35572 ft 454 kts 254°
2026-05-04 15:02 41.30161 -23.25327 35721 ft 454 kts 254°
2026-05-04 15:02 41.29234 -23.29336 35872 ft 453 kts 254°
2026-05-04 15:03 41.28309 -23.33325 36016 ft 453 kts 254°
2026-05-04 15:03 41.27376 -23.37342 36151 ft 452 kts 254°
2026-05-04 15:03 41.26459 -23.41282 36283 ft 452 kts 254°
2026-05-04 15:03 41.25529 -23.45273 36309 ft 452 kts 254°
2026-05-04 15:04 41.23673 -23.53212 36316 ft 452 kts 254°
2026-05-04 15:04 41.21802 -23.61186 36318 ft 453 kts 254°
2026-05-04 15:05 41.19936 -23.69112 36317 ft 453 kts 253°
2026-05-04 15:05 41.18057 -23.77067 36319 ft 453 kts 253°
2026-05-04 15:06 41.16164 -23.85057 36319 ft 453 kts 253°
2026-05-04 15:07 41.13318 -23.96998 36318 ft 454 kts 253°
2026-05-04 15:07 41.11413 -24.04972 36317 ft 455 kts 253°
2026-05-04 15:08 41.09507 -24.12927 36318 ft 456 kts 253°
2026-05-04 15:08 41.07584 -24.20917 36323 ft 457 kts 253°
2026-05-04 15:09 41.05647 -24.28930 36324 ft 456 kts 253°
2026-05-04 15:09 41.03717 -24.36889 36321 ft 456 kts 253°
2026-05-04 15:10 41.00806 -24.48843 36319 ft 455 kts 253°
2026-05-04 15:11 40.97887 -24.60772 36319 ft 455 kts 253°
2026-05-04 15:11 40.95935 -24.68714 36319 ft 456 kts 252°
2026-05-04 15:12 40.93980 -24.76644 36318 ft 457 kts 252°
2026-05-04 15:12 40.92008 -24.84620 36316 ft 457 kts 252°
2026-05-04 15:13 40.90036 -24.92563 36314 ft 457 kts 252°
2026-05-04 15:13 40.88044 -25.00557 36319 ft 457 kts 252°
2026-05-04 15:14 40.86060 -25.08495 36318 ft 457 kts 252°
2026-05-04 15:14 40.84067 -25.16443 36316 ft 457 kts 252°
2026-05-04 15:15 40.82072 -25.24373 36315 ft 457 kts 253°
2026-05-04 15:15 40.80067 -25.32315 36317 ft 457 kts 253°
2026-05-04 15:16 40.77057 -25.44189 36314 ft 457 kts 253°
2026-05-04 15:17 40.74036 -25.56051 36320 ft 457 kts 253°
2026-05-04 15:17 40.70993 -25.67937 36330 ft 457 kts 252°
2026-05-04 15:18 40.68955 -25.75868 36333 ft 457 kts 252°
2026-05-04 15:19 40.65892 -25.87736 36333 ft 457 kts 252°
2026-05-04 15:19 40.62820 -25.99580 36332 ft 457 kts 252°
2026-05-04 15:20 40.60765 -26.07472 36332 ft 457 kts 252°
2026-05-04 15:20 40.58696 -26.15394 36333 ft 457 kts 252°
2026-05-04 15:21 40.56633 -26.23264 36330 ft 457 kts 252°
2026-05-04 15:22 40.53537 -26.35033 36328 ft 457 kts 252°
2026-05-04 15:22 40.50412 -26.46849 36319 ft 457 kts 253°
2026-05-04 15:23 40.48324 -26.54715 36322 ft 457 kts 253°
2026-05-04 15:23 40.46228 -26.62584 36326 ft 457 kts 253°
2026-05-04 15:24 40.42028 -26.78284 36328 ft 457 kts 252°
2026-05-04 15:25 40.39918 -26.86135 36325 ft 458 kts 252°
2026-05-04 15:26 40.36739 -26.97913 36320 ft 458 kts 252°
2026-05-04 15:26 40.33559 -27.09640 36326 ft 457 kts 252°
2026-05-04 15:27 40.30360 -27.21385 36327 ft 457 kts 252°
2026-05-04 15:28 40.27198 -27.32939 36329 ft 457 kts 252°
2026-05-04 15:29 40.23983 -27.44633 36328 ft 456 kts 252°
2026-05-04 15:30 40.16434 -27.71880 36326 ft 456 kts 252°
2026-05-04 15:31 40.13183 -27.83526 36323 ft 456 kts 252°
2026-05-04 15:32 40.07724 -28.02959 36319 ft 457 kts 252°
2026-05-04 15:34 40.02244 -28.22330 36345 ft 457 kts 252°
2026-05-04 15:34 39.98951 -28.33898 36336 ft 456 kts 252°
2026-05-04 15:35 39.95628 -28.45515 36342 ft 456 kts 253°
2026-05-04 15:36 39.92307 -28.57082 36338 ft 456 kts 253°
2026-05-04 15:36 39.90087 -28.64780 36338 ft 456 kts 253°
2026-05-04 15:37 39.87856 -28.72496 36336 ft 456 kts 252°
2026-05-04 15:37 39.85636 -28.80153 36337 ft 456 kts 252°
2026-05-04 15:38 39.83389 -28.87882 36336 ft 456 kts 252°
2026-05-04 15:38 39.81148 -28.95565 36336 ft 456 kts 252°
2026-05-04 15:39 39.78901 -29.03244 36334 ft 456 kts 252°
2026-05-04 15:40 39.75516 -29.14770 36335 ft 455 kts 252°
2026-05-04 15:40 39.73267 -29.22404 36330 ft 455 kts 252°
2026-05-04 15:41 39.71004 -29.30060 36329 ft 456 kts 252°
2026-05-04 15:41 39.68728 -29.37742 36331 ft 456 kts 252°
2026-05-04 15:42 39.66458 -29.45378 36335 ft 456 kts 252°
2026-05-04 15:42 39.64163 -29.53074 36324 ft 457 kts 252°
2026-05-04 15:43 39.61882 -29.60700 36323 ft 456 kts 252°
2026-05-04 15:43 39.59593 -29.68332 36333 ft 456 kts 251°
2026-05-04 15:44 39.57285 -29.76002 36335 ft 457 kts 251°
2026-05-04 15:44 39.54988 -29.83611 36326 ft 457 kts 251°
2026-05-04 15:45 39.52668 -29.91267 36325 ft 457 kts 251°
2026-05-04 15:45 39.50280 -29.98877 36325 ft 459 kts 248°
2026-05-04 15:46 39.47384 -30.06204 36331 ft 460 kts 244°
2026-05-04 15:46 39.44278 -30.13456 36339 ft 460 kts 244°
2026-05-04 15:47 39.41175 -30.20680 36331 ft 460 kts 244°
2026-05-04 15:47 39.38093 -30.27837 36323 ft 461 kts 244°
2026-05-04 15:48 39.34972 -30.35074 36317 ft 461 kts 244°
2026-05-04 15:48 39.30300 -30.45872 36317 ft 461 kts 244°
2026-05-04 15:49 39.27172 -30.53081 36307 ft 460 kts 244°
2026-05-04 15:49 39.24049 -30.60263 36315 ft 462 kts 244°
2026-05-04 15:50 39.20911 -30.67463 36316 ft 463 kts 243°
2026-05-04 15:50 39.17753 -30.74689 36314 ft 463 kts 243°
2026-05-04 15:51 39.14594 -30.81905 36318 ft 464 kts 243°
2026-05-04 15:51 39.11422 -30.89132 36314 ft 464 kts 243°
2026-05-04 15:52 39.08254 -30.96335 36319 ft 465 kts 243°
2026-05-04 15:52 39.05075 -31.03544 36310 ft 465 kts 243°
2026-05-04 15:53 39.01895 -31.10737 36321 ft 465 kts 243°
2026-05-04 15:53 38.98697 -31.17960 36318 ft 466 kts 243°
2026-05-04 15:54 38.95493 -31.25178 36308 ft 467 kts 243°
2026-05-04 15:54 38.92265 -31.32430 36306 ft 467 kts 244°
2026-05-04 15:55 38.89063 -31.39612 36313 ft 468 kts 244°
2026-05-04 15:55 38.85830 -31.46840 36314 ft 467 kts 244°
2026-05-04 15:56 38.82602 -31.54040 36310 ft 468 kts 244°
2026-05-04 15:56 38.79368 -31.61241 36305 ft 468 kts 244°
2026-05-04 15:57 38.76109 -31.68483 36307 ft 468 kts 243°
2026-05-04 15:57 38.72865 -31.75673 36302 ft 469 kts 243°
2026-05-04 15:58 38.69603 -31.82892 36309 ft 471 kts 244°
2026-05-04 15:58 38.66304 -31.90170 36310 ft 472 kts 244°
2026-05-04 15:59 38.63027 -31.97384 36285 ft 472 kts 244°
2026-05-04 15:59 38.59719 -32.04650 36282 ft 473 kts 244°
2026-05-04 16:00 38.56408 -32.11906 36274 ft 474 kts 244°
2026-05-04 16:00 38.53096 -32.19146 36298 ft 475 kts 245°
2026-05-04 16:01 38.49761 -32.26429 36276 ft 476 kts 245°
2026-05-04 16:01 38.46426 -32.33687 36299 ft 478 kts 245°
2026-05-04 16:02 38.43065 -32.40987 36282 ft 478 kts 245°
2026-05-04 16:03 38.38023 -32.51905 36286 ft 479 kts 245°
2026-05-04 16:03 38.34626 -32.59240 36284 ft 481 kts 246°
2026-05-04 16:04 38.31232 -32.66555 36285 ft 482 kts 245°
2026-05-04 16:04 38.26106 -32.77570 36289 ft 484 kts 245°
2026-05-04 16:05 38.24397 -32.81233 36529 ft 485 kts 245°
2026-05-04 16:05 38.22696 -32.84875 36382 ft 484 kts 245°
2026-05-04 16:06 38.17531 -32.95906 36293 ft 485 kts 246°
2026-05-04 16:07 38.10625 -33.10599 36296 ft 485 kts 246°
2026-05-04 16:08 38.03683 -33.25310 36293 ft 487 kts 246°
2026-05-04 16:09 37.94952 -33.43706 36277 ft 489 kts 247°
2026-05-04 16:10 37.87931 -33.58423 36270 ft 489 kts 248°
2026-05-04 16:11 37.80878 -33.73154 36270 ft 493 kts 247°
2026-05-04 16:12 37.70171 -33.95365 36265 ft 494 kts 248°
2026-05-04 16:13 37.63039 -34.10087 36275 ft 494 kts 248°
2026-05-04 16:14 37.55863 -34.24836 36269 ft 495 kts 248°
2026-05-04 16:16 37.46839 -34.43279 36273 ft 495 kts 248°
2026-05-04 16:17 37.37836 -34.61586 36268 ft 495 kts 248°
2026-05-04 16:18 37.30561 -34.76292 36268 ft 495 kts 247°
2026-05-04 16:19 37.21478 -34.94574 36277 ft 497 kts 247°
2026-05-04 16:20 37.12318 -35.12910 36263 ft 497 kts 247°
2026-05-04 16:22 37.03173 -35.31117 36255 ft 495 kts 247°
2026-05-04 16:23 36.92192 -35.52844 36255 ft 494 kts 247°
2026-05-04 16:25 36.81174 -35.74507 36253 ft 493 kts 246°
2026-05-04 16:26 36.68270 -35.99701 36251 ft 493 kts 246°
2026-05-04 16:28 36.59068 -36.17554 36242 ft 492 kts 246°
2026-05-04 16:29 36.46131 -36.42493 36228 ft 489 kts 246°
2026-05-04 16:31 36.36903 -36.60170 36225 ft 489 kts 246°
2026-05-04 16:32 36.25828 -36.81268 36222 ft 488 kts 245°
2026-05-04 16:33 36.18435 -36.95282 36219 ft 488 kts 245°
2026-05-04 16:34 36.12867 -37.05794 36214 ft 487 kts 245°
2026-05-04 16:35 36.01772 -37.26646 36209 ft 483 kts 245°
2026-05-04 16:36 35.96226 -37.37028 36205 ft 483 kts 245°
2026-05-04 16:37 35.90702 -37.47332 36202 ft 482 kts 245°
2026-05-04 16:38 35.83347 -37.61003 36196 ft 480 kts 245°
2026-05-04 16:39 35.74128 -37.78064 36191 ft 478 kts 244°
2026-05-04 16:40 35.66761 -37.91640 36197 ft 479 kts 244°
2026-05-04 16:41 35.57534 -38.08564 36197 ft 477 kts 244°
2026-05-04 16:43 35.48298 -38.25428 36188 ft 475 kts 244°
2026-05-04 16:43 35.42775 -38.35471 36190 ft 475 kts 244°
2026-05-04 16:45 35.31672 -38.55579 36185 ft 475 kts 244°
2026-05-04 16:46 35.22450 -38.72190 36181 ft 475 kts 243°
2026-05-04 16:47 35.15046 -38.85469 36177 ft 473 kts 243°
2026-05-04 16:48 35.07625 -38.98732 36176 ft 472 kts 243°
2026-05-04 16:49 35.00234 -39.11890 36176 ft 471 kts 243°
2026-05-04 16:50 34.92822 -39.25040 36170 ft 471 kts 243°
2026-05-04 16:51 34.87236 -39.34918 36164 ft 472 kts 243°
2026-05-04 16:52 34.79823 -39.47977 36167 ft 470 kts 243°
2026-05-04 16:53 34.74255 -39.57756 36163 ft 470 kts 243°
2026-05-04 16:54 34.66800 -39.70804 36160 ft 470 kts 242°
2026-05-04 16:55 34.55618 -39.90279 36152 ft 469 kts 242°
2026-05-04 16:56 34.45970 -40.06198 36156 ft 473 kts 238°
2026-05-04 16:57 34.39820 -40.15574 36158 ft 473 kts 239°
2026-05-04 16:58 34.31651 -40.27985 36154 ft 474 kts 238°
2026-05-04 17:00 34.19336 -40.46595 36157 ft 473 kts 239°
2026-05-04 17:01 34.09049 -40.62106 36152 ft 474 kts 239°
2026-05-04 17:02 34.00812 -40.74446 36149 ft 474 kts 238°
2026-05-04 17:03 33.94614 -40.83708 36150 ft 474 kts 238°
2026-05-04 17:03 33.88419 -40.92945 36145 ft 474 kts 238°
2026-05-04 17:04 33.80138 -41.05248 36147 ft 475 kts 238°
2026-05-04 17:05 33.71816 -41.17577 36146 ft 474 kts 238°
2026-05-04 17:06 33.65585 -41.26777 36148 ft 474 kts 238°
2026-05-04 17:07 33.60054 -41.34928 36148 ft 475 kts 238°
2026-05-04 17:07 33.55201 -41.42061 36145 ft 473 kts 238°
2026-05-04 17:08 33.48957 -41.51226 36150 ft 473 kts 238°
2026-05-04 17:09 33.44805 -41.57297 36147 ft 472 kts 238°
2026-05-04 17:09 33.40616 -41.63419 36147 ft 473 kts 238°
2026-05-04 17:10 33.30219 -41.78572 36150 ft 473 kts 238°
2026-05-04 17:11 33.26026 -41.84662 36152 ft 473 kts 238°
2026-05-04 17:12 33.19774 -41.93722 36155 ft 473 kts 238°
2026-05-04 17:13 33.09299 -42.08859 36153 ft 473 kts 238°
2026-05-04 17:14 33.01018 -42.20784 36155 ft 473 kts 238°
2026-05-04 17:15 32.94735 -42.29802 36148 ft 474 kts 238°
2026-05-04 17:16 32.86330 -42.41843 36154 ft 473 kts 238°
2026-05-04 17:17 32.77942 -42.53814 36150 ft 474 kts 238°
2026-05-04 17:18 32.69516 -42.65803 36150 ft 473 kts 237°
2026-05-04 17:19 32.61083 -42.77762 36147 ft 473 kts 237°
2026-05-04 17:20 32.52652 -42.89673 36150 ft 474 kts 237°
2026-05-04 17:20 32.46324 -42.98590 36151 ft 472 kts 237°
2026-05-04 17:21 32.37860 -43.10487 36152 ft 473 kts 238°
2026-05-04 17:22 32.33622 -43.16428 36153 ft 472 kts 237°
2026-05-04 17:23 32.25191 -43.28217 36152 ft 471 kts 237°
2026-05-04 17:24 32.18850 -43.37064 36153 ft 471 kts 237°
2026-05-04 17:25 32.10405 -43.48807 36153 ft 471 kts 237°
2026-05-04 17:26 32.01910 -43.60585 36151 ft 472 kts 237°
2026-05-04 17:27 31.91298 -43.75247 36149 ft 471 kts 236°
2026-05-04 17:28 31.82802 -43.86944 36150 ft 470 kts 237°
2026-05-04 17:29 31.70036 -44.04454 36152 ft 471 kts 236°
2026-05-04 17:31 31.59393 -44.18989 36147 ft 470 kts 236°
2026-05-04 17:32 31.48730 -44.33496 36155 ft 470 kts 236°
2026-05-04 17:33 31.40218 -44.45038 36153 ft 468 kts 236°
2026-05-04 17:34 31.31708 -44.56538 36154 ft 469 kts 236°
2026-05-04 17:35 31.21052 -44.70892 36152 ft 469 kts 236°
2026-05-04 17:36 31.16763 -44.76655 36153 ft 468 kts 236°
2026-05-04 17:36 31.12494 -44.82385 36151 ft 469 kts 235°
2026-05-04 17:37 31.08212 -44.88121 36154 ft 468 kts 235°
2026-05-04 17:37 31.03953 -44.93816 36149 ft 468 kts 235°
2026-05-04 17:38 30.99666 -44.99543 36151 ft 468 kts 235°
2026-05-04 17:38 30.95382 -45.05258 36152 ft 469 kts 236°
2026-05-04 17:39 30.88972 -45.13792 36151 ft 469 kts 235°
2026-05-04 17:39 30.87986 -45.15103 36150 ft 468 kts 235°
2026-05-04 17:40 30.84693 -45.19475 36153 ft 468 kts 235°
2026-05-04 17:40 30.80391 -45.25182 36155 ft 468 kts 236°
2026-05-04 17:41 30.76086 -45.30886 36156 ft 468 kts 235°
2026-05-04 17:41 30.71809 -45.36545 36156 ft 467 kts 235°
2026-05-04 17:42 30.67534 -45.42194 36159 ft 468 kts 235°
2026-05-04 17:42 30.63234 -45.47865 36156 ft 468 kts 235°
2026-05-04 17:43 30.58942 -45.53518 36158 ft 467 kts 235°
2026-05-04 17:43 30.54638 -45.59175 36160 ft 467 kts 235°
2026-05-04 17:44 30.50334 -45.64829 36154 ft 468 kts 235°
2026-05-04 17:44 30.46041 -45.70462 36151 ft 469 kts 234°
2026-05-04 17:45 30.41734 -45.76102 36148 ft 469 kts 234°
2026-05-04 17:45 30.37422 -45.81741 36150 ft 468 kts 234°
2026-05-04 17:46 30.33092 -45.87392 36150 ft 468 kts 234°
2026-05-04 17:46 30.28800 -45.92988 36148 ft 467 kts 234°
2026-05-04 17:47 30.24483 -45.98613 36148 ft 468 kts 234°
2026-05-04 17:47 30.20173 -46.04215 36151 ft 468 kts 234°
2026-05-04 17:48 30.15847 -46.09830 36149 ft 468 kts 234°
2026-05-04 17:48 30.11523 -46.15435 36150 ft 468 kts 234°
2026-05-04 17:49 30.07180 -46.21059 36153 ft 469 kts 234°
2026-05-04 17:49 30.02864 -46.26639 36155 ft 468 kts 234°
2026-05-04 17:50 29.98515 -46.32250 36151 ft 468 kts 234°
2026-05-04 17:50 29.94179 -46.37840 36152 ft 468 kts 234°
2026-05-04 17:51 29.89856 -46.43407 36152 ft 468 kts 234°
2026-05-04 17:51 29.85519 -46.48981 36152 ft 468 kts 234°
2026-05-04 17:52 29.81144 -46.54597 36153 ft 469 kts 234°
2026-05-04 17:52 29.76814 -46.60147 36152 ft 469 kts 234°
2026-05-04 17:53 29.72458 -46.65721 36152 ft 469 kts 233°
2026-05-04 17:53 29.68102 -46.71289 36153 ft 470 kts 234°
2026-05-04 17:54 29.63725 -46.76877 36152 ft 470 kts 234°
2026-05-04 17:54 29.59347 -46.82457 36151 ft 469 kts 234°
2026-05-04 17:55 29.54988 -46.88008 36151 ft 470 kts 233°
2026-05-04 17:55 29.50621 -46.93553 36153 ft 470 kts 233°
2026-05-04 17:56 29.46242 -46.99107 36150 ft 469 kts 233°
2026-05-04 17:56 29.41867 -47.04647 36152 ft 469 kts 233°
2026-05-04 17:57 29.37480 -47.10203 36152 ft 470 kts 233°
2026-05-04 17:57 29.33107 -47.15731 36151 ft 469 kts 233°
2026-05-04 17:58 29.28696 -47.21300 36149 ft 470 kts 233°
2026-05-04 17:58 29.24299 -47.26842 36150 ft 470 kts 233°
2026-05-04 17:59 29.19902 -47.32378 36150 ft 470 kts 233°
2026-05-04 18:00 29.13321 -47.40648 36150 ft 470 kts 233°
2026-05-04 18:00 29.08928 -47.46158 36151 ft 470 kts 233°
2026-05-04 18:01 29.04540 -47.51652 36151 ft 470 kts 233°
2026-05-04 18:01 29.00126 -47.57174 36151 ft 470 kts 233°
2026-05-04 18:02 28.93522 -47.65426 36151 ft 471 kts 233°
2026-05-04 18:02 28.89099 -47.70942 36151 ft 470 kts 233°
2026-05-04 18:03 28.84679 -47.76445 36159 ft 470 kts 233°
2026-05-04 18:03 28.80272 -47.81924 36165 ft 470 kts 233°
2026-05-04 18:04 28.75866 -47.87395 36167 ft 470 kts 233°
2026-05-04 18:05 28.69234 -47.95616 36169 ft 470 kts 233°
2026-05-04 18:05 28.64812 -48.01089 36166 ft 470 kts 233°
2026-05-04 18:06 28.58186 -48.09274 36165 ft 470 kts 233°
2026-05-04 18:06 28.54488 -48.13839 36161 ft 470 kts 233°
2026-05-04 18:07 28.50035 -48.19324 36155 ft 472 kts 233°
2026-05-04 18:07 28.45600 -48.24781 36152 ft 472 kts 233°
2026-05-04 18:08 28.41160 -48.30236 36152 ft 472 kts 233°
2026-05-04 18:08 28.36677 -48.35737 36152 ft 472 kts 233°
2026-05-04 18:09 28.27778 -48.46636 36152 ft 472 kts 233°
2026-05-04 18:10 28.23312 -48.52094 36152 ft 472 kts 233°
2026-05-04 18:10 28.18822 -48.57574 36152 ft 473 kts 233°
2026-05-04 18:11 28.14347 -48.63031 36152 ft 473 kts 233°
2026-05-04 18:11 28.09845 -48.68514 36153 ft 474 kts 232°
2026-05-04 18:12 28.05365 -48.73958 36152 ft 474 kts 232°
2026-05-04 18:12 28.00877 -48.79406 36152 ft 474 kts 232°
2026-05-04 18:13 27.96401 -48.84835 36151 ft 474 kts 232°
2026-05-04 18:14 27.89651 -48.93006 36149 ft 474 kts 232°
2026-05-04 18:14 27.85128 -48.98475 36150 ft 474 kts 232°
2026-05-04 18:15 27.76144 -49.09311 36150 ft 474 kts 232°
2026-05-04 18:16 27.71629 -49.14747 36149 ft 475 kts 232°
2026-05-04 18:16 27.67123 -49.20165 36150 ft 474 kts 232°
2026-05-04 18:17 27.60348 -49.28298 36150 ft 474 kts 232°
2026-05-04 18:18 27.53579 -49.36405 36150 ft 474 kts 232°
2026-05-04 18:18 27.49057 -49.41814 36142 ft 474 kts 232°
2026-05-04 18:19 27.42267 -49.49924 36144 ft 475 kts 232°
2026-05-04 18:19 27.37746 -49.55313 36146 ft 476 kts 232°
2026-05-04 18:20 27.33209 -49.60713 36144 ft 475 kts 231°
2026-05-04 18:20 27.28662 -49.66118 36144 ft 475 kts 231°
2026-05-04 18:21 27.24105 -49.71529 36147 ft 476 kts 231°
2026-05-04 18:21 27.19586 -49.76888 36147 ft 476 kts 231°
2026-05-04 18:22 27.14996 -49.82322 36147 ft 476 kts 231°
2026-05-04 18:22 27.10437 -49.87710 36146 ft 476 kts 231°
2026-05-04 18:23 27.05878 -49.93096 36147 ft 477 kts 231°
2026-05-04 18:23 27.01286 -49.98510 36149 ft 477 kts 231°
2026-05-04 18:24 26.96924 -50.04094 36151 ft 476 kts 234°
2026-05-04 18:24 26.92676 -50.09715 36150 ft 476 kts 234°
2026-05-04 18:25 26.88389 -50.15366 36148 ft 476 kts 234°
2026-05-04 18:25 26.84094 -50.21019 36147 ft 476 kts 234°
2026-05-04 18:26 26.79806 -50.26656 36146 ft 476 kts 234°
2026-05-04 18:26 26.75521 -50.32279 36146 ft 475 kts 234°
2026-05-04 18:27 26.71240 -50.37888 36146 ft 475 kts 234°
2026-05-04 18:27 26.66958 -50.43494 36144 ft 475 kts 234°
2026-05-04 18:28 26.62670 -50.49099 36144 ft 475 kts 234°
2026-05-04 18:28 26.58348 -50.54743 36143 ft 476 kts 234°
2026-05-04 18:29 26.54053 -50.60341 36143 ft 476 kts 234°
2026-05-04 18:29 26.49746 -50.65951 36144 ft 475 kts 233°
2026-05-04 18:30 26.43311 -50.74317 36147 ft 476 kts 233°
2026-05-04 18:31 26.38994 -50.79921 36145 ft 476 kts 233°
2026-05-04 18:31 26.34673 -50.85521 36146 ft 476 kts 233°
2026-05-04 18:32 26.30370 -50.91093 36143 ft 476 kts 233°
2026-05-04 18:32 26.26045 -50.96687 36143 ft 476 kts 233°
2026-05-04 18:33 26.21707 -51.02291 36141 ft 476 kts 233°
2026-05-04 18:33 26.17404 -51.07843 36139 ft 477 kts 233°
2026-05-04 18:34 26.13055 -51.13448 36135 ft 477 kts 233°
2026-05-04 18:34 26.08731 -51.19012 36135 ft 477 kts 233°
2026-05-04 18:35 26.04401 -51.24577 36134 ft 478 kts 233°
2026-05-04 18:35 26.00036 -51.30179 36139 ft 478 kts 233°
2026-05-04 18:36 25.95697 -51.35744 36144 ft 477 kts 233°
2026-05-04 18:36 25.91356 -51.41305 36147 ft 478 kts 233°
2026-05-04 18:37 25.87011 -51.46862 36146 ft 478 kts 233°
2026-05-04 18:37 25.82635 -51.52450 36146 ft 479 kts 233°
2026-05-04 18:38 25.78290 -51.57995 36146 ft 478 kts 233°
2026-05-04 18:38 25.73920 -51.63564 36145 ft 478 kts 233°
2026-05-04 18:39 25.69542 -51.69135 36144 ft 479 kts 233°
2026-05-04 18:39 25.65184 -51.74673 36144 ft 479 kts 233°
2026-05-04 18:40 25.60801 -51.80236 36142 ft 479 kts 233°
2026-05-04 18:40 25.56412 -51.85802 36141 ft 479 kts 233°
2026-05-04 18:41 25.52056 -51.91321 36143 ft 480 kts 232°
2026-05-04 18:41 25.47655 -51.96890 36139 ft 480 kts 232°
2026-05-04 18:42 25.43274 -52.02420 36140 ft 480 kts 232°
2026-05-04 18:42 25.38861 -52.07990 36139 ft 480 kts 232°
2026-05-04 18:43 25.34454 -52.13547 36138 ft 479 kts 232°
2026-05-04 18:43 25.30066 -52.19071 36139 ft 479 kts 232°
2026-05-04 18:44 25.25656 -52.24615 36137 ft 479 kts 232°
2026-05-04 18:44 25.21276 -52.30116 36135 ft 479 kts 232°
2026-05-04 18:45 25.16863 -52.35651 36133 ft 479 kts 232°
2026-05-04 18:45 25.12469 -52.41158 36134 ft 480 kts 232°
2026-05-04 18:46 25.08066 -52.46670 36131 ft 480 kts 232°
2026-05-04 18:46 25.03660 -52.52177 36129 ft 480 kts 232°
2026-05-04 18:47 24.99242 -52.57691 36130 ft 479 kts 232°
2026-05-04 18:47 24.94840 -52.63180 36127 ft 480 kts 232°
2026-05-04 18:48 24.90404 -52.68705 36129 ft 480 kts 232°
2026-05-04 18:48 24.86003 -52.74181 36125 ft 480 kts 232°
2026-05-04 18:49 24.81559 -52.79704 36129 ft 480 kts 232°
2026-05-04 18:49 24.77162 -52.85161 36122 ft 480 kts 232°
2026-05-04 18:50 24.72717 -52.90671 36126 ft 480 kts 232°
2026-05-04 18:50 24.68291 -52.96151 36123 ft 481 kts 232°
2026-05-04 18:51 24.63855 -53.01641 36121 ft 481 kts 232°
2026-05-04 18:51 24.59399 -53.07146 36123 ft 481 kts 232°
2026-05-04 18:52 24.54969 -53.12614 36127 ft 481 kts 232°
2026-05-04 18:52 24.50531 -53.18085 36130 ft 481 kts 232°
2026-05-04 18:53 24.46086 -53.23557 36128 ft 480 kts 231°
2026-05-04 18:53 24.41630 -53.29036 36125 ft 481 kts 232°
2026-05-04 18:54 24.37202 -53.34477 36122 ft 480 kts 232°
2026-05-04 18:54 24.32741 -53.39951 36120 ft 481 kts 232°
2026-05-04 18:55 24.28290 -53.45407 36117 ft 481 kts 231°
2026-05-04 18:55 24.21603 -53.53590 36113 ft 481 kts 231°
2026-05-04 18:56 24.17142 -53.59040 36113 ft 481 kts 231°
2026-05-04 18:56 24.12663 -53.64508 36112 ft 480 kts 231°
2026-05-04 18:57 24.08205 -53.69944 36111 ft 481 kts 231°
2026-05-04 18:57 24.03746 -53.75374 36111 ft 481 kts 231°
2026-05-04 18:58 23.99265 -53.80827 36108 ft 480 kts 231°
2026-05-04 18:58 23.94800 -53.86252 36108 ft 480 kts 231°
2026-05-04 18:59 23.90338 -53.91669 36109 ft 481 kts 231°
2026-05-04 18:59 23.85870 -53.97086 36106 ft 481 kts 231°
2026-05-04 19:00 23.81388 -54.02512 36109 ft 480 kts 231°
2026-05-04 19:00 23.76936 -54.07899 36107 ft 481 kts 231°
2026-05-04 19:01 23.72437 -54.13335 36108 ft 481 kts 231°
2026-05-04 19:01 23.67945 -54.18756 36108 ft 481 kts 231°
2026-05-04 19:02 23.63480 -54.24138 36109 ft 481 kts 231°
2026-05-04 19:02 23.58994 -54.29540 36109 ft 481 kts 231°
2026-05-04 19:03 23.54521 -54.34923 36109 ft 480 kts 231°
2026-05-04 19:03 23.50025 -54.40325 36108 ft 481 kts 231°
2026-05-04 19:04 23.45549 -54.45699 36107 ft 480 kts 231°
2026-05-04 19:04 23.41052 -54.51090 36110 ft 481 kts 231°
2026-05-04 19:05 23.36573 -54.56457 36108 ft 481 kts 231°
2026-05-04 19:05 23.32068 -54.61845 36109 ft 481 kts 231°
2026-05-04 19:06 23.27576 -54.67214 36109 ft 481 kts 230°
2026-05-04 19:06 23.23060 -54.72604 36108 ft 482 kts 230°
2026-05-04 19:07 23.18533 -54.78000 36108 ft 481 kts 230°
2026-05-04 19:07 23.14018 -54.83375 36109 ft 482 kts 230°
2026-05-04 19:08 23.09513 -54.88733 36107 ft 482 kts 230°
2026-05-04 19:08 23.05011 -54.94078 36108 ft 482 kts 230°
2026-05-04 19:09 23.00489 -54.99424 36107 ft 482 kts 229°
2026-05-04 19:09 22.95706 -55.04560 36107 ft 483 kts 227°
2026-05-04 19:10 22.90862 -55.09641 36107 ft 484 kts 226°
2026-05-04 19:10 22.86047 -55.14684 36104 ft 484 kts 226°
2026-05-04 19:11 22.81197 -55.19760 36105 ft 483 kts 226°
2026-05-04 19:11 22.76381 -55.24795 36102 ft 483 kts 226°
2026-05-04 19:12 22.69130 -55.32360 36098 ft 483 kts 226°
2026-05-04 19:13 22.64305 -55.37390 36099 ft 483 kts 226°
2026-05-04 19:13 22.59457 -55.42439 36098 ft 483 kts 226°
2026-05-04 19:14 22.54591 -55.47503 36096 ft 483 kts 226°
2026-05-04 19:14 22.49777 -55.52507 36094 ft 483 kts 226°
2026-05-04 19:15 22.44902 -55.57568 36094 ft 483 kts 226°
2026-05-04 19:15 22.40090 -55.62563 36093 ft 483 kts 226°
2026-05-04 19:16 22.35234 -55.67596 36090 ft 483 kts 226°
2026-05-04 19:16 22.30362 -55.72640 36091 ft 484 kts 226°
2026-05-04 19:17 22.25528 -55.77640 36090 ft 484 kts 226°
2026-05-04 19:17 22.20653 -55.82676 36089 ft 484 kts 226°
2026-05-04 19:18 22.15793 -55.87692 36089 ft 484 kts 226°
2026-05-04 19:18 22.10941 -55.92695 36089 ft 484 kts 226°
2026-05-04 19:19 22.06071 -55.97713 36088 ft 483 kts 226°
2026-05-04 19:19 22.01212 -56.02712 36089 ft 483 kts 226°
2026-05-04 19:20 21.96359 -56.07701 36089 ft 483 kts 226°
2026-05-04 19:20 21.91484 -56.12708 36089 ft 484 kts 226°
2026-05-04 19:21 21.86635 -56.17683 36087 ft 484 kts 226°
2026-05-04 19:21 21.81771 -56.22668 36087 ft 484 kts 226°
2026-05-04 19:22 21.76887 -56.27669 36089 ft 483 kts 226°
2026-05-04 19:22 21.71998 -56.32670 36089 ft 483 kts 226°
2026-05-04 19:23 21.67137 -56.37638 36087 ft 483 kts 226°
2026-05-04 19:23 21.62249 -56.42628 36087 ft 483 kts 226°
2026-05-04 19:24 21.57385 -56.47590 36089 ft 484 kts 226°
2026-05-04 19:24 21.52499 -56.52568 36088 ft 484 kts 226°
2026-05-04 19:25 21.47610 -56.57545 36089 ft 483 kts 226°
2026-05-04 19:25 21.42726 -56.62511 36088 ft 483 kts 226°
2026-05-04 19:26 21.37866 -56.67450 36090 ft 483 kts 225°
2026-05-04 19:26 21.32968 -56.72424 36089 ft 484 kts 226°
2026-05-04 19:27 21.28090 -56.77372 36090 ft 483 kts 225°
2026-05-04 19:27 21.23186 -56.82342 36089 ft 484 kts 225°
2026-05-04 19:28 21.18300 -56.87287 36089 ft 483 kts 225°
2026-05-04 19:28 21.13413 -56.92228 36089 ft 483 kts 226°
2026-05-04 19:29 21.08524 -56.97165 36089 ft 483 kts 226°
2026-05-04 19:29 21.03652 -57.02083 36089 ft 483 kts 226°
2026-05-04 19:30 20.98752 -57.07026 36088 ft 483 kts 226°
2026-05-04 19:30 20.93886 -57.11930 36084 ft 483 kts 226°
2026-05-04 19:31 20.88990 -57.16857 36081 ft 483 kts 226°
2026-05-04 19:31 20.84100 -57.21773 36082 ft 483 kts 226°
2026-05-04 19:32 20.79194 -57.26701 36080 ft 483 kts 226°
2026-05-04 19:32 20.74317 -57.31594 36079 ft 483 kts 226°
2026-05-04 19:33 20.69424 -57.36501 36077 ft 482 kts 226°
2026-05-04 19:33 20.64520 -57.41412 36070 ft 482 kts 226°
2026-05-04 19:34 20.59625 -57.46311 36069 ft 482 kts 226°
2026-05-04 19:34 20.54752 -57.51183 36067 ft 482 kts 226°
2026-05-04 19:35 20.49871 -57.56059 36068 ft 482 kts 225°
2026-05-04 19:35 20.44955 -57.60965 36068 ft 482 kts 226°
2026-05-04 19:36 20.40067 -57.65837 36069 ft 481 kts 225°
2026-05-04 19:36 20.35177 -57.70710 36068 ft 481 kts 225°
2026-05-04 19:37 20.30295 -57.75566 36068 ft 480 kts 225°
2026-05-04 19:37 20.25409 -57.80427 36068 ft 480 kts 225°
2026-05-04 19:38 20.20536 -57.85273 36068 ft 481 kts 225°
2026-05-04 19:38 20.15645 -57.90129 36068 ft 481 kts 225°
2026-05-04 19:39 20.10755 -57.94978 36069 ft 480 kts 225°
2026-05-04 19:39 20.05856 -57.99830 36069 ft 480 kts 225°
2026-05-04 19:40 20.00995 -58.04641 36069 ft 480 kts 225°
2026-05-04 19:40 19.96073 -58.09508 36069 ft 480 kts 225°
2026-05-04 19:41 19.91201 -58.14323 36068 ft 480 kts 225°
2026-05-04 19:41 19.86313 -58.19149 36067 ft 480 kts 225°
2026-05-04 19:42 19.81419 -58.23978 36065 ft 480 kts 225°
2026-05-04 19:42 19.76514 -58.28812 36065 ft 480 kts 225°
2026-05-04 19:43 19.71616 -58.33635 36063 ft 481 kts 225°
2026-05-04 19:43 19.66736 -58.38435 36061 ft 481 kts 225°
2026-05-04 19:44 19.61822 -58.43265 36060 ft 480 kts 225°
2026-05-04 19:44 19.56898 -58.48101 36060 ft 480 kts 225°
2026-05-04 19:45 19.52017 -58.52890 36058 ft 480 kts 225°
2026-05-04 19:45 19.47121 -58.57691 36058 ft 480 kts 225°
2026-05-04 19:46 19.42214 -58.62496 36058 ft 480 kts 225°
2026-05-04 19:46 19.37318 -58.67288 36058 ft 480 kts 225°
2026-05-04 19:47 19.32382 -58.72115 36051 ft 480 kts 225°
2026-05-04 19:47 19.27468 -58.76916 36043 ft 481 kts 225°
2026-05-04 19:48 19.22830 -58.81443 36042 ft 480 kts 225°
2026-05-04 19:48 19.17927 -58.86223 36040 ft 480 kts 225°
2026-05-04 19:49 19.13037 -58.90989 36034 ft 479 kts 224°
2026-05-04 19:49 19.08109 -58.95782 36030 ft 479 kts 224°
2026-05-04 19:50 19.03222 -59.00536 36030 ft 479 kts 224°
2026-05-04 19:50 18.98298 -59.05323 36030 ft 480 kts 224°
2026-05-04 19:51 18.93388 -59.10093 36029 ft 480 kts 224°
2026-05-04 19:51 18.88470 -59.14864 36028 ft 480 kts 224°
2026-05-04 19:52 18.83551 -59.19635 36028 ft 480 kts 225°
2026-05-04 19:52 18.78608 -59.24423 36028 ft 481 kts 225°
2026-05-04 19:53 18.73699 -59.29174 36028 ft 481 kts 225°
2026-05-04 19:53 18.68754 -59.33958 36028 ft 481 kts 225°
2026-05-04 19:54 18.63836 -59.38712 36028 ft 481 kts 224°
2026-05-04 19:54 18.58920 -59.43459 36028 ft 481 kts 224°
2026-05-04 19:55 18.53950 -59.48253 36028 ft 481 kts 224°
2026-05-04 19:55 18.49036 -59.52989 36028 ft 481 kts 224°
2026-05-04 19:56 18.44099 -59.57743 36029 ft 482 kts 224°
2026-05-04 19:56 18.39141 -59.62516 36030 ft 482 kts 224°
2026-05-04 19:57 18.34194 -59.67273 36032 ft 482 kts 224°
2026-05-04 19:57 18.29225 -59.72048 36030 ft 482 kts 224°
2026-05-04 19:58 18.24266 -59.76807 36030 ft 482 kts 224°
2026-05-04 19:58 18.19324 -59.81547 36030 ft 482 kts 224°
2026-05-04 19:59 18.14362 -59.86299 36029 ft 482 kts 224°
2026-05-04 19:59 18.09405 -59.91042 36029 ft 482 kts 224°
2026-05-04 20:00 18.04425 -59.95801 36029 ft 483 kts 224°
2026-05-04 20:00 17.99463 -60.00537 36027 ft 483 kts 223°
2026-05-04 20:01 17.94401 -60.05133 36025 ft 483 kts 222°
2026-05-04 20:01 17.89259 -60.09730 36025 ft 483 kts 222°
2026-05-04 20:02 17.84129 -60.14320 36023 ft 484 kts 222°
2026-05-04 20:02 17.79017 -60.18900 36022 ft 484 kts 222°
2026-05-04 20:03 17.73886 -60.23497 36020 ft 485 kts 222°
2026-05-04 20:03 17.68755 -60.28091 36018 ft 485 kts 222°
2026-05-04 20:04 17.63660 -60.32648 36016 ft 485 kts 222°
2026-05-04 20:04 17.58509 -60.37252 36017 ft 485 kts 222°
2026-05-04 20:05 17.53358 -60.41853 36013 ft 485 kts 223°
2026-05-04 20:05 17.48235 -60.46427 36014 ft 485 kts 222°
2026-05-04 20:06 17.43099 -60.51008 36011 ft 486 kts 222°
2026-05-04 20:06 17.37921 -60.55621 36008 ft 486 kts 222°
2026-05-04 20:07 17.32776 -60.60204 36010 ft 486 kts 222°
2026-05-04 20:07 17.27639 -60.64776 36006 ft 486 kts 222°
2026-05-04 20:08 17.22495 -60.69349 36005 ft 486 kts 222°
2026-05-04 20:08 17.17319 -60.73947 36006 ft 487 kts 222°
2026-05-04 20:09 17.12158 -60.78528 36004 ft 487 kts 222°
2026-05-04 20:09 17.07003 -60.83103 36003 ft 486 kts 222°
2026-05-04 20:10 17.01850 -60.87671 36002 ft 486 kts 222°
2026-05-04 20:10 16.96661 -60.92268 36001 ft 486 kts 222°
2026-05-04 20:11 16.91510 -60.96825 36003 ft 487 kts 222°
2026-05-04 20:11 16.86347 -61.01391 36002 ft 487 kts 222°
2026-05-04 20:12 16.81157 -61.05978 36002 ft 487 kts 222°
2026-05-04 20:12 16.76014 -61.10521 36001 ft 487 kts 222°
2026-05-04 20:13 16.70816 -61.15109 36000 ft 487 kts 222°
2026-05-04 20:13 16.65650 -61.19665 35995 ft 487 kts 222°
2026-05-04 20:14 16.60474 -61.24223 35992 ft 488 kts 222°
2026-05-04 20:14 16.55288 -61.28788 35990 ft 488 kts 222°
2026-05-04 20:15 16.50089 -61.33363 35989 ft 488 kts 222°
2026-05-04 20:15 16.44891 -61.37930 35990 ft 488 kts 222°
2026-05-04 20:16 16.39669 -61.42513 35991 ft 488 kts 222°
2026-05-04 20:16 16.34483 -61.47060 35994 ft 488 kts 221°
2026-05-04 20:17 16.29274 -61.51625 35998 ft 488 kts 222°
2026-05-04 20:17 16.24242 -61.56314 36008 ft 488 kts 225°
2026-05-04 20:18 16.19346 -61.61217 36014 ft 488 kts 226°
2026-05-04 20:18 16.14442 -61.66124 36015 ft 488 kts 225°
2026-05-04 20:19 16.09524 -61.71034 36014 ft 488 kts 225°
2026-05-04 20:19 16.04638 -61.75905 36005 ft 488 kts 225°
2026-05-04 20:20 15.99731 -61.80790 35991 ft 488 kts 225°
2026-05-04 20:20 15.94813 -61.85685 35988 ft 488 kts 225°
2026-05-04 20:21 15.89901 -61.90568 35987 ft 488 kts 225°
2026-05-04 20:21 15.82536 -61.97884 35984 ft 489 kts 225°
2026-05-04 20:22 15.77630 -62.02754 35981 ft 489 kts 225°
2026-05-04 20:22 15.72725 -62.07619 35983 ft 489 kts 225°
2026-05-04 20:23 15.67778 -62.12523 35985 ft 489 kts 225°
2026-05-04 20:23 15.62866 -62.17388 35980 ft 489 kts 225°
2026-05-04 20:24 15.57935 -62.22270 35973 ft 490 kts 225°
2026-05-04 20:24 15.53019 -62.27133 35970 ft 490 kts 225°
2026-05-04 20:25 15.48065 -62.32030 35970 ft 490 kts 225°
2026-05-04 20:25 15.43132 -62.36901 35970 ft 490 kts 225°
2026-05-04 20:26 15.38206 -62.41763 35970 ft 490 kts 225°
2026-05-04 20:26 15.33261 -62.46641 35970 ft 490 kts 225°
2026-05-04 20:27 15.28350 -62.51483 35969 ft 490 kts 225°
2026-05-04 20:27 15.23404 -62.56354 35968 ft 489 kts 225°
2026-05-04 20:28 15.18461 -62.61218 35969 ft 490 kts 225°
2026-05-04 20:28 15.13537 -62.66060 35968 ft 490 kts 225°
2026-05-04 20:29 15.08569 -62.70943 35967 ft 490 kts 225°
2026-05-04 20:29 15.03643 -62.75783 35967 ft 490 kts 225°
2026-05-04 20:30 14.98687 -62.80648 35965 ft 490 kts 225°
2026-05-04 20:30 14.93738 -62.85504 35965 ft 489 kts 225°
2026-05-04 20:31 14.88819 -62.90324 35963 ft 489 kts 225°
2026-05-04 20:31 14.83859 -62.95183 35963 ft 489 kts 225°
2026-05-04 20:32 14.78920 -63.00021 35963 ft 489 kts 225°
2026-05-04 20:32 14.74007 -63.04827 35963 ft 489 kts 225°
2026-05-04 20:33 14.69032 -63.09692 35961 ft 489 kts 225°
2026-05-04 20:33 14.64125 -63.14486 35960 ft 488 kts 225°
2026-05-04 20:34 14.59160 -63.19333 35957 ft 488 kts 225°
2026-05-04 20:34 14.54230 -63.24143 35956 ft 488 kts 225°
2026-05-04 20:35 14.49311 -63.28939 35952 ft 488 kts 225°
2026-05-04 20:35 14.44362 -63.33764 35950 ft 488 kts 225°
2026-05-04 20:36 14.39454 -63.38546 35953 ft 487 kts 225°
2026-05-04 20:36 14.34516 -63.43352 35950 ft 487 kts 225°
2026-05-04 20:37 14.29573 -63.48158 35947 ft 487 kts 225°
2026-05-04 20:37 14.24664 -63.52929 35947 ft 487 kts 225°
2026-05-04 20:38 14.19712 -63.57742 35947 ft 487 kts 225°
2026-05-04 20:38 14.14801 -63.62509 35947 ft 487 kts 225°
2026-05-04 20:39 14.09847 -63.67315 35945 ft 487 kts 225°
2026-05-04 20:39 14.04936 -63.72078 35943 ft 487 kts 225°
2026-05-04 20:40 14.00010 -63.76849 35945 ft 486 kts 225°
2026-05-04 20:40 13.95086 -63.81618 35945 ft 486 kts 225°
2026-05-04 20:41 13.90146 -63.86399 35943 ft 486 kts 225°
2026-05-04 20:41 13.85208 -63.91174 35946 ft 486 kts 225°
2026-05-04 20:42 13.80303 -63.95915 35940 ft 485 kts 225°
2026-05-04 20:42 13.75373 -64.00673 35942 ft 485 kts 225°
2026-05-04 20:43 13.70424 -64.05442 35939 ft 486 kts 225°
2026-05-04 20:43 13.65494 -64.10201 35938 ft 485 kts 226°
2026-05-04 20:44 13.60892 -64.15239 35938 ft 483 kts 232°
2026-05-04 20:44 13.56716 -64.20600 35939 ft 481 kts 234°
2026-05-04 20:45 13.52561 -64.25997 35933 ft 481 kts 234°
2026-05-04 20:45 13.48397 -64.31384 35937 ft 481 kts 234°
2026-05-04 20:46 13.44241 -64.36752 35933 ft 481 kts 234°
2026-05-04 20:46 13.40088 -64.42120 35933 ft 481 kts 234°
2026-05-04 20:47 13.35944 -64.47489 35935 ft 481 kts 234°
2026-05-04 20:47 13.31777 -64.52873 35934 ft 480 kts 234°
2026-05-04 20:48 13.27623 -64.58227 35938 ft 480 kts 234°
2026-05-04 20:48 13.23455 -64.63593 35938 ft 480 kts 234°
2026-05-04 20:49 13.19290 -64.68961 35940 ft 480 kts 234°
2026-05-04 20:49 13.15145 -64.74319 35945 ft 480 kts 234°
2026-05-04 20:50 13.10992 -64.79673 35944 ft 479 kts 233°
2026-05-04 20:50 13.06837 -64.85021 35946 ft 478 kts 234°
2026-05-04 20:51 13.02698 -64.90342 35944 ft 478 kts 234°
2026-05-04 20:51 12.98554 -64.95665 35944 ft 479 kts 234°
2026-05-04 20:52 12.94381 -65.01022 35943 ft 479 kts 234°
2026-05-04 20:52 12.90253 -65.06318 35940 ft 479 kts 234°
2026-05-04 20:53 12.86076 -65.11674 35941 ft 478 kts 233°
2026-05-04 20:53 12.81930 -65.16984 35939 ft 478 kts 234°
2026-05-04 20:54 12.77767 -65.22315 35934 ft 479 kts 234°
2026-05-04 20:54 12.73620 -65.27621 35932 ft 478 kts 234°
2026-05-04 20:55 12.69456 -65.32948 35933 ft 478 kts 234°
2026-05-04 20:55 12.65286 -65.38279 35932 ft 479 kts 234°
2026-05-04 20:56 12.61136 -65.43584 35930 ft 479 kts 234°
2026-05-04 20:56 12.56973 -65.48896 35927 ft 478 kts 234°
2026-05-04 20:57 12.52828 -65.54185 35926 ft 478 kts 234°
2026-05-04 20:57 12.48651 -65.59512 35926 ft 478 kts 234°
2026-05-04 20:58 12.44491 -65.64816 35917 ft 478 kts 234°
2026-05-04 20:58 12.40323 -65.70125 35915 ft 478 kts 234°
2026-05-04 20:59 12.36164 -65.75417 35913 ft 479 kts 233°
2026-05-04 20:59 12.32002 -65.80713 35909 ft 479 kts 233°
2026-05-04 21:00 12.27809 -65.86045 35909 ft 480 kts 233°
2026-05-04 21:00 12.23642 -65.91339 35907 ft 479 kts 233°
2026-05-04 21:01 12.19468 -65.96640 35906 ft 479 kts 234°
2026-05-04 21:01 12.15297 -66.01936 35904 ft 479 kts 234°
2026-05-04 21:02 12.11098 -66.07267 35904 ft 479 kts 233°
2026-05-04 21:02 12.06926 -66.12559 35900 ft 479 kts 233°
2026-05-04 21:03 12.02767 -66.17829 35898 ft 479 kts 233°
2026-05-04 21:03 11.98584 -66.23126 35901 ft 478 kts 233°
2026-05-04 21:04 11.94404 -66.28416 35898 ft 478 kts 233°
2026-05-04 21:04 11.90233 -66.33695 35897 ft 478 kts 233°
2026-05-04 21:05 11.86047 -66.38986 35965 ft 481 kts 233°
2026-05-04 21:05 11.83943 -66.41647 36261 ft 481 kts 233°
2026-05-04 21:05 11.81855 -66.44286 36634 ft 479 kts 233°
2026-05-04 21:06 11.79763 -66.46925 36976 ft 477 kts 233°
2026-05-04 21:06 11.77689 -66.49539 37271 ft 477 kts 233°
2026-05-04 21:06 11.75591 -66.52182 37544 ft 476 kts 233°
2026-05-04 21:06 11.73524 -66.54787 37786 ft 476 kts 233°
2026-05-04 21:07 11.71433 -66.57424 37895 ft 476 kts 233°
2026-05-04 21:07 11.69355 -66.60043 37898 ft 476 kts 233°
2026-05-04 21:07 11.65204 -66.65292 37902 ft 476 kts 233°
2026-05-04 21:08 11.61048 -66.70534 37897 ft 476 kts 233°
2026-05-04 21:08 11.56865 -66.75809 37900 ft 477 kts 233°
2026-05-04 21:09 11.52694 -66.81068 37896 ft 477 kts 233°
2026-05-04 21:09 11.48532 -66.86301 37894 ft 477 kts 233°
2026-05-04 21:10 11.44347 -66.91557 37898 ft 476 kts 232°
2026-05-04 21:10 11.40177 -66.96812 37894 ft 476 kts 233°
2026-05-04 21:11 11.36018 -67.02053 37893 ft 476 kts 233°
2026-05-04 21:11 11.31856 -67.07283 37890 ft 476 kts 233°
2026-05-04 21:12 11.27666 -67.12542 37891 ft 477 kts 232°
2026-05-04 21:12 11.23498 -67.17769 37886 ft 477 kts 233°
2026-05-04 21:13 11.19325 -67.23013 37877 ft 477 kts 233°
2026-05-04 21:13 11.15134 -67.28272 37868 ft 478 kts 232°
2026-05-04 21:14 11.10931 -67.33534 37868 ft 478 kts 232°
2026-05-04 21:14 11.06747 -67.38766 37860 ft 478 kts 232°
2026-05-04 21:15 11.02527 -67.44035 37861 ft 478 kts 232°
2026-05-04 21:15 10.98323 -67.49274 37861 ft 478 kts 232°
2026-05-04 21:16 10.94018 -67.54408 37862 ft 479 kts 231°
2026-05-04 21:16 10.89672 -67.59541 37859 ft 480 kts 231°
2026-05-04 21:17 10.85307 -67.64724 37859 ft 479 kts 231°
2026-05-04 21:17 10.80979 -67.69878 37855 ft 479 kts 231°
2026-05-04 21:18 10.76656 -67.75011 37855 ft 479 kts 231°
2026-05-04 21:18 10.72299 -67.80176 37853 ft 479 kts 231°
2026-05-04 21:19 10.67975 -67.85294 37854 ft 480 kts 231°
2026-05-04 21:19 10.63604 -67.90445 37854 ft 480 kts 230°
2026-05-04 21:20 10.59160 -67.95540 37853 ft 480 kts 229°
2026-05-04 21:20 10.54714 -68.00620 37850 ft 479 kts 229°
2026-05-04 21:21 10.50285 -68.05685 37852 ft 479 kts 230°
2026-05-04 21:21 10.45865 -68.10772 37862 ft 479 kts 230°
2026-05-04 21:22 10.41484 -68.15845 37890 ft 479 kts 230°
2026-05-04 21:22 10.37070 -68.20943 37927 ft 479 kts 230°
2026-05-04 21:23 10.32647 -68.26045 37969 ft 479 kts 230°
2026-05-04 21:23 10.28221 -68.31142 38004 ft 480 kts 230°
2026-05-04 21:24 10.23794 -68.36239 38029 ft 480 kts 230°
2026-05-04 21:24 10.19391 -68.41304 38019 ft 480 kts 230°
2026-05-04 21:25 10.14935 -68.46428 38005 ft 480 kts 230°
2026-05-04 21:25 10.10531 -68.51486 37996 ft 480 kts 230°
2026-05-04 21:26 10.06095 -68.56576 37985 ft 481 kts 229°
2026-05-04 21:26 10.01649 -68.61687 37976 ft 481 kts 230°
2026-05-04 21:27 9.97242 -68.66782 37969 ft 480 kts 229°
2026-05-04 21:27 9.92791 -68.71916 37963 ft 480 kts 229°
2026-05-04 21:28 9.88388 -68.76986 37937 ft 481 kts 229°
2026-05-04 21:28 9.83932 -68.82112 37927 ft 482 kts 229°
2026-05-04 21:29 9.79501 -68.87207 37897 ft 482 kts 229°
2026-05-04 21:29 9.75051 -68.92321 37880 ft 482 kts 229°
2026-05-04 21:30 9.70630 -68.97393 37862 ft 481 kts 229°
2026-05-04 21:30 9.66201 -69.02473 37855 ft 480 kts 230°
2026-05-04 21:31 9.59573 -69.10104 37855 ft 481 kts 230°
2026-05-04 21:32 9.55140 -69.15212 37858 ft 482 kts 230°
2026-05-04 21:32 9.50711 -69.20307 37854 ft 482 kts 229°
2026-05-04 21:33 9.46258 -69.25421 37852 ft 481 kts 229°
2026-05-04 21:33 9.41824 -69.30508 37871 ft 481 kts 230°
2026-05-04 21:34 9.37396 -69.35586 37888 ft 481 kts 230°
2026-05-04 21:34 9.32957 -69.40677 37896 ft 481 kts 230°
2026-05-04 21:35 9.28510 -69.45772 37888 ft 482 kts 230°
2026-05-04 21:35 9.24046 -69.50889 37870 ft 483 kts 229°
2026-05-04 21:36 9.19599 -69.55980 37866 ft 482 kts 230°
2026-05-04 21:36 9.15158 -69.61063 37864 ft 482 kts 229°
2026-05-04 21:37 9.10685 -69.66180 37871 ft 482 kts 229°
2026-05-04 21:37 9.06246 -69.71257 37873 ft 482 kts 229°
2026-05-04 21:38 9.01782 -69.76360 37877 ft 483 kts 229°
2026-05-04 21:38 8.97324 -69.81457 37882 ft 483 kts 229°
2026-05-04 21:39 8.92863 -69.86551 37882 ft 483 kts 229°
2026-05-04 21:39 8.88408 -69.91636 37890 ft 482 kts 229°
2026-05-04 21:40 8.83944 -69.96731 37888 ft 483 kts 229°
2026-05-04 21:40 8.79487 -70.01815 37893 ft 482 kts 229°
2026-05-04 21:41 8.75008 -70.06918 37903 ft 483 kts 229°
2026-05-04 21:41 8.70560 -70.11987 37902 ft 483 kts 229°
2026-05-04 21:42 8.66084 -70.17078 37905 ft 484 kts 229°
2026-05-04 21:42 8.61589 -70.22195 37929 ft 484 kts 229°
2026-05-04 21:43 8.57047 -70.27232 37921 ft 483 kts 228°
2026-05-04 21:43 8.52490 -70.32224 37930 ft 482 kts 228°
2026-05-04 21:44 8.47950 -70.37199 37919 ft 482 kts 228°
2026-05-04 21:44 8.43379 -70.42210 37936 ft 482 kts 228°
2026-05-04 21:45 8.38834 -70.47190 37932 ft 482 kts 228°
2026-05-04 21:45 8.34280 -70.52181 37940 ft 482 kts 228°
2026-05-04 21:46 8.29733 -70.57165 37942 ft 481 kts 228°
2026-05-04 21:46 8.25212 -70.62118 37944 ft 481 kts 227°
2026-05-04 21:47 8.20649 -70.67113 37936 ft 481 kts 227°
2026-05-04 21:47 8.16108 -70.72081 37924 ft 481 kts 227°
2026-05-04 21:48 8.11586 -70.77026 37939 ft 480 kts 227°
2026-05-04 21:48 8.07045 -70.81989 37944 ft 480 kts 228°
2026-05-04 21:49 8.02508 -70.86952 37929 ft 479 kts 227°
2026-05-04 21:49 7.97984 -70.91897 37928 ft 479 kts 227°
2026-05-04 21:50 7.93458 -70.96840 37920 ft 480 kts 227°
2026-05-04 21:50 7.88927 -71.01787 37933 ft 479 kts 227°
2026-05-04 21:51 7.84404 -71.06724 37928 ft 480 kts 227°
2026-05-04 21:51 7.79870 -71.11671 37940 ft 480 kts 227°
2026-05-04 21:52 7.75325 -71.16627 37945 ft 479 kts 227°
2026-05-04 21:52 7.70807 -71.21552 37928 ft 480 kts 227°
2026-05-04 21:53 7.66267 -71.26503 37930 ft 480 kts 227°
2026-05-04 21:53 7.61719 -71.31459 37933 ft 480 kts 227°
2026-05-04 21:54 7.57197 -71.36385 37942 ft 479 kts 227°
2026-05-04 21:54 7.52657 -71.41328 37930 ft 478 kts 227°
2026-05-04 21:55 7.48136 -71.46249 37935 ft 478 kts 227°
2026-05-04 21:55 7.43613 -71.51169 37933 ft 478 kts 227°
2026-05-04 21:56 7.39112 -71.56065 37941 ft 478 kts 226°
2026-05-04 21:56 7.34570 -71.61002 37950 ft 478 kts 227°
2026-05-04 21:57 7.30065 -71.65899 37952 ft 478 kts 226°
2026-05-04 21:57 7.25539 -71.70815 37956 ft 477 kts 226°
2026-05-04 21:58 7.21021 -71.75723 37961 ft 477 kts 226°
2026-05-04 21:58 7.16513 -71.80614 37948 ft 476 kts 226°
2026-05-04 21:59 7.12002 -71.85509 37937 ft 477 kts 226°
2026-05-04 21:59 7.07465 -71.90424 37933 ft 477 kts 226°
2026-05-04 22:00 7.02956 -71.95311 37939 ft 476 kts 226°
2026-05-04 22:00 6.98286 -72.00007 37940 ft 474 kts 223°
2026-05-04 22:01 6.93515 -72.04620 37968 ft 475 kts 223°
2026-05-04 22:01 6.88735 -72.09232 38014 ft 475 kts 223°
2026-05-04 22:02 6.83955 -72.13843 38074 ft 475 kts 223°
2026-05-04 22:02 6.79155 -72.18471 38150 ft 477 kts 223°
2026-05-04 22:02 6.76735 -72.20805 38268 ft 479 kts 223°
2026-05-04 22:03 6.74333 -72.23122 38498 ft 479 kts 223°
2026-05-04 22:03 6.71920 -72.25447 38792 ft 478 kts 223°
2026-05-04 22:03 6.69508 -72.27773 39068 ft 477 kts 223°
2026-05-04 22:03 6.67116 -72.30077 39300 ft 477 kts 223°
2026-05-04 22:04 6.64729 -72.32377 39507 ft 477 kts 223°
2026-05-04 22:04 6.62337 -72.34682 39699 ft 477 kts 223°
2026-05-04 22:04 6.59914 -72.37015 39884 ft 477 kts 223°
2026-05-04 22:04 6.57528 -72.39314 40063 ft 477 kts 223°
2026-05-04 22:05 6.55134 -72.41619 40238 ft 477 kts 224°
2026-05-04 22:05 6.52745 -72.43919 40406 ft 476 kts 224°
2026-05-04 22:05 6.50348 -72.46227 40416 ft 478 kts 224°
2026-05-04 22:06 6.45533 -72.50862 40413 ft 478 kts 224°
2026-05-04 22:06 6.40691 -72.55522 40431 ft 479 kts 224°
2026-05-04 22:07 6.35870 -72.60159 40451 ft 479 kts 224°
2026-05-04 22:07 6.31039 -72.64803 40493 ft 479 kts 224°
2026-05-04 22:08 6.26218 -72.69439 40536 ft 479 kts 224°
2026-05-04 22:08 6.21400 -72.74070 40558 ft 479 kts 224°
2026-05-04 22:09 6.16571 -72.78711 40505 ft 479 kts 224°
2026-05-04 22:09 6.11760 -72.83333 40484 ft 478 kts 224°
2026-05-04 22:10 6.06942 -72.87959 40494 ft 478 kts 224°
2026-05-04 22:10 6.02128 -72.92580 40526 ft 477 kts 224°
2026-05-04 22:11 5.97337 -72.97182 40572 ft 476 kts 225°
2026-05-04 22:11 5.92547 -73.01781 40572 ft 476 kts 224°
2026-05-04 22:12 5.87753 -73.06381 40526 ft 477 kts 224°
2026-05-04 22:12 5.82925 -73.11014 40509 ft 478 kts 224°
2026-05-04 22:13 5.78102 -73.15639 40470 ft 478 kts 224°
2026-05-04 22:13 5.73284 -73.20258 40452 ft 479 kts 224°
2026-05-04 22:14 5.68456 -73.24882 40457 ft 480 kts 224°
2026-05-04 22:14 5.63604 -73.29534 40452 ft 480 kts 224°
2026-05-04 22:15 5.58759 -73.34177 40450 ft 480 kts 224°
2026-05-04 22:15 5.53943 -73.38791 40444 ft 480 kts 224°
2026-05-04 22:16 5.49091 -73.43434 40444 ft 480 kts 223°
2026-05-04 22:16 5.44269 -73.48050 40442 ft 479 kts 223°
2026-05-04 22:17 5.39425 -73.52687 40443 ft 480 kts 223°
2026-05-04 22:17 5.34600 -73.57301 40447 ft 479 kts 223°
2026-05-04 22:18 5.29784 -73.61910 40453 ft 479 kts 223°
2026-05-04 22:18 5.24959 -73.66524 40464 ft 478 kts 223°
2026-05-04 22:19 5.20137 -73.71134 40464 ft 478 kts 223°
2026-05-04 22:19 5.15317 -73.75741 40462 ft 477 kts 223°
2026-05-04 22:20 5.10502 -73.80343 40464 ft 478 kts 223°
2026-05-04 22:20 5.05667 -73.84962 40463 ft 478 kts 223°
2026-05-04 22:21 5.00849 -73.89562 40448 ft 478 kts 223°
2026-05-04 22:21 4.96022 -73.94172 40438 ft 478 kts 223°
2026-05-04 22:22 4.91207 -73.98766 40411 ft 478 kts 223°
2026-05-04 22:22 4.86382 -74.03369 40402 ft 478 kts 223°
2026-05-04 22:23 4.81570 -74.07962 40408 ft 478 kts 223°
2026-05-04 22:23 4.76695 -74.12608 40396 ft 479 kts 223°
2026-05-04 22:24 4.71866 -74.17207 40394 ft 479 kts 223°
2026-05-04 22:24 4.67028 -74.21825 40384 ft 479 kts 224°
2026-05-04 22:25 4.62184 -74.26466 40385 ft 479 kts 224°
2026-05-04 22:25 4.57376 -74.31062 40366 ft 480 kts 224°
2026-05-04 22:26 4.52536 -74.35683 40353 ft 480 kts 224°
2026-05-04 22:26 4.47678 -74.40315 40309 ft 481 kts 224°
2026-05-04 22:27 4.42825 -74.44940 40238 ft 481 kts 224°
2026-05-04 22:27 4.37939 -74.49596 40156 ft 481 kts 224°
2026-05-04 22:28 4.33088 -74.54218 40093 ft 481 kts 224°
2026-05-04 22:28 4.28263 -74.58815 40025 ft 481 kts 224°
2026-05-04 22:29 4.23384 -74.63462 39988 ft 481 kts 224°
2026-05-04 22:29 4.18527 -74.68088 39982 ft 480 kts 224°
2026-05-04 22:30 4.13682 -74.72701 39955 ft 481 kts 224°
2026-05-04 22:30 4.08819 -74.77329 39928 ft 481 kts 224°
2026-05-04 22:31 4.03955 -74.81960 39925 ft 480 kts 224°
2026-05-04 22:31 3.99102 -74.86577 39930 ft 480 kts 224°
2026-05-04 22:32 3.94283 -74.91161 39927 ft 480 kts 224°
2026-05-04 22:32 3.89408 -74.95799 39923 ft 481 kts 224°
2026-05-04 22:33 3.84549 -75.00423 39921 ft 482 kts 224°
2026-05-04 22:33 3.79680 -75.05053 39928 ft 482 kts 224°
2026-05-04 22:34 3.74803 -75.09690 39917 ft 482 kts 224°
2026-05-04 22:34 3.69950 -75.14303 39984 ft 482 kts 224°
2026-05-04 22:35 3.65067 -75.18944 40021 ft 482 kts 224°
2026-05-04 22:35 3.60207 -75.23562 40095 ft 482 kts 224°
2026-05-04 22:36 3.55323 -75.28204 40129 ft 482 kts 224°
2026-05-04 22:36 3.50436 -75.32846 40152 ft 483 kts 224°
2026-05-04 22:37 3.45555 -75.37483 40140 ft 483 kts 224°
2026-05-04 22:37 3.40679 -75.42114 40152 ft 483 kts 224°
2026-05-04 22:38 3.35799 -75.46748 40175 ft 483 kts 224°
2026-05-04 22:38 3.30918 -75.51383 40202 ft 483 kts 224°
2026-05-04 22:39 3.26033 -75.56020 40283 ft 483 kts 224°
2026-05-04 22:39 3.21138 -75.60666 40345 ft 483 kts 224°
2026-05-04 22:40 3.16275 -75.65282 40424 ft 484 kts 224°
2026-05-04 22:40 3.11375 -75.69933 40462 ft 484 kts 224°
2026-05-04 22:41 3.06509 -75.74550 40534 ft 484 kts 224°
2026-05-04 22:41 3.01611 -75.79195 40576 ft 484 kts 224°
2026-05-04 22:42 2.96719 -75.83836 40622 ft 483 kts 224°
2026-05-04 22:42 2.91801 -75.88501 40636 ft 483 kts 224°
2026-05-04 22:43 2.86928 -75.93123 40620 ft 484 kts 224°
2026-05-04 22:43 2.82020 -75.97777 40593 ft 484 kts 224°
2026-05-04 22:44 2.77141 -76.02402 40550 ft 484 kts 224°
2026-05-04 22:44 2.72224 -76.07064 40523 ft 485 kts 224°
2026-05-04 22:45 2.67319 -76.11713 40530 ft 485 kts 224°
2026-05-04 22:45 2.59946 -76.18700 40525 ft 484 kts 224°
2026-05-04 22:46 2.55064 -76.23328 40547 ft 484 kts 224°
2026-05-04 22:46 2.50180 -76.27954 40542 ft 485 kts 224°
2026-05-04 22:47 2.45264 -76.32612 40474 ft 485 kts 224°
2026-05-04 22:47 2.40368 -76.37250 40452 ft 485 kts 224°
2026-05-04 22:48 2.35457 -76.41901 40388 ft 486 kts 224°
2026-05-04 22:48 2.30534 -76.46564 40345 ft 486 kts 224°
2026-05-04 22:49 2.25610 -76.51225 40337 ft 486 kts 224°
2026-05-04 22:49 2.20713 -76.55864 40317 ft 486 kts 224°
2026-05-04 22:50 2.15768 -76.60547 40319 ft 486 kts 223°
2026-05-04 22:50 2.10856 -76.65197 40319 ft 486 kts 223°
2026-05-04 22:51 2.05935 -76.69853 40335 ft 487 kts 223°
2026-05-04 22:51 2.01004 -76.74520 40376 ft 487 kts 224°
2026-05-04 22:52 1.96087 -76.79174 40364 ft 486 kts 224°
2026-05-04 22:52 1.91171 -76.83829 40327 ft 485 kts 224°
2026-05-04 22:53 1.86257 -76.88480 40285 ft 486 kts 223°
2026-05-04 22:53 1.81336 -76.93135 40298 ft 486 kts 224°
2026-05-04 22:54 1.76429 -76.97778 40260 ft 487 kts 224°
2026-05-04 22:54 1.71486 -77.02452 40290 ft 487 kts 224°
2026-05-04 22:55 1.66575 -77.07099 40275 ft 486 kts 224°
2026-05-04 22:55 1.61647 -77.11762 40245 ft 486 kts 224°
2026-05-04 22:56 1.56737 -77.16406 40231 ft 486 kts 224°
2026-05-04 22:56 1.51795 -77.21079 40212 ft 487 kts 224°
2026-05-04 22:57 1.46879 -77.25727 40206 ft 487 kts 224°
2026-05-04 22:57 1.41963 -77.30375 40210 ft 486 kts 224°
2026-05-04 22:58 1.37048 -77.35023 40196 ft 486 kts 224°
2026-05-04 22:58 1.32114 -77.39689 40208 ft 486 kts 224°
2026-05-04 22:59 1.27202 -77.44332 40253 ft 486 kts 224°
2026-05-04 22:59 1.22283 -77.48981 40260 ft 486 kts 224°
2026-05-04 23:00 1.17348 -77.53645 40280 ft 485 kts 224°
2026-05-04 23:00 1.12460 -77.58264 40338 ft 484 kts 224°
2026-05-04 23:01 1.07549 -77.62906 40375 ft 484 kts 224°
2026-05-04 23:01 1.02642 -77.67542 40427 ft 483 kts 224°
2026-05-04 23:02 0.97782 -77.72131 40451 ft 482 kts 224°
2026-05-04 23:02 0.92899 -77.76742 39651 ft 482 kts 224°
2026-05-04 23:03 0.90458 -77.79047 38417 ft 491 kts 224°
2026-05-04 23:03 0.87915 -77.81448 36840 ft 504 kts 223°
2026-05-04 23:03 0.85374 -77.83852 35495 ft 511 kts 223°
2026-05-04 23:03 0.82772 -77.86297 34930 ft 512 kts 222°
2026-05-04 23:04 0.80092 -77.88627 34714 ft 514 kts 219°
2026-05-04 23:04 0.77260 -77.90833 34626 ft 512 kts 216°
2026-05-04 23:04 0.74438 -77.92944 33885 ft 508 kts 216°
2026-05-04 23:04 0.71588 -77.95059 33120 ft 506 kts 216°
2026-05-04 23:05 0.68769 -77.97148 32271 ft 506 kts 215°
2026-05-04 23:05 0.65948 -77.99239 31357 ft 508 kts 215°
2026-05-04 23:05 0.63069 -78.01376 30439 ft 511 kts 215°
2026-05-04 23:05 0.60245 -78.03473 29535 ft 514 kts 215°
2026-05-04 23:06 0.57343 -78.05627 28689 ft 514 kts 215°
2026-05-04 23:06 0.54479 -78.07754 27979 ft 511 kts 215°
2026-05-04 23:06 0.51651 -78.09856 27286 ft 508 kts 215°
2026-05-04 23:06 0.48830 -78.11956 26713 ft 502 kts 215°
2026-05-04 23:07 0.46063 -78.14025 26279 ft 493 kts 215°
2026-05-04 23:07 0.43311 -78.16084 25849 ft 488 kts 215°
2026-05-04 23:07 0.40585 -78.18117 25487 ft 485 kts 215°
2026-05-04 23:07 0.37880 -78.20132 25060 ft 483 kts 215°
2026-05-04 23:08 0.35186 -78.22138 24568 ft 480 kts 215°
2026-05-04 23:08 0.32540 -78.24107 23996 ft 478 kts 215°
2026-05-04 23:08 0.29837 -78.26118 23387 ft 477 kts 215°
2026-05-04 23:08 0.27193 -78.28085 22854 ft 474 kts 216°
2026-05-04 23:09 0.24571 -78.30036 22383 ft 469 kts 216°
2026-05-04 23:09 0.21941 -78.31993 21934 ft 463 kts 216°
2026-05-04 23:09 0.19373 -78.33904 21505 ft 458 kts 216°
2026-05-04 23:09 0.16829 -78.35796 21084 ft 452 kts 216°
2026-05-04 23:10 0.14330 -78.37655 20673 ft 447 kts 216°
2026-05-04 23:10 0.11835 -78.39510 20267 ft 442 kts 216°
2026-05-04 23:10 0.09348 -78.41357 19853 ft 438 kts 216°
2026-05-04 23:10 0.06919 -78.43159 19425 ft 435 kts 216°
2026-05-04 23:11 0.04469 -78.44978 18979 ft 433 kts 216°
2026-05-04 23:11 0.02094 -78.46743 18499 ft 428 kts 216°
2026-05-04 23:11 -0.00297 -78.48519 18104 ft 421 kts 216°
2026-05-04 23:11 -0.02709 -78.50102 18022 ft 404 kts 204°
2026-05-04 23:12 -0.05339 -78.50877 18009 ft 385 kts 185°
2026-05-04 23:12 -0.07980 -78.50867 18014 ft 386 kts 173°
2026-05-04 23:12 -0.10751 -78.50540 18001 ft 400 kts 171°
2026-05-04 23:12 -0.13504 -78.50198 17987 ft 403 kts 172°
2026-05-04 23:13 -0.16334 -78.49910 17820 ft 404 kts 173°
2026-05-04 23:13 -0.19150 -78.49686 17594 ft 403 kts 174°
2026-05-04 23:13 -0.21954 -78.49472 17380 ft 403 kts 174°
2026-05-04 23:13 -0.24757 -78.49254 17172 ft 404 kts 174°
2026-05-04 23:14 -0.27580 -78.49031 16989 ft 404 kts 174°
2026-05-04 23:14 -0.30404 -78.48806 16801 ft 404 kts 174°
2026-05-04 23:14 -0.33207 -78.48582 16597 ft 404 kts 174°
2026-05-04 23:14 -0.35981 -78.48219 16151 ft 393 kts 162°
2026-05-04 23:15 -0.38431 -78.47091 15673 ft 381 kts 144°
2026-05-04 23:15 -0.40489 -78.45481 15047 ft 375 kts 134°
2026-05-04 23:15 -0.42218 -78.43565 14373 ft 365 kts 123°
2026-05-04 23:15 -0.43188 -78.41305 13872 ft 346 kts 94°
2026-05-04 23:16 -0.42988 -78.39052 13662 ft 318 kts 65°
2026-05-04 23:16 -0.41795 -78.37309 13429 ft 294 kts 35°
2026-05-04 23:16 -0.39996 -78.36515 13195 ft 274 kts
2026-05-04 23:16 -0.38131 -78.36709 12990 ft 264 kts 349°
2026-05-04 23:17 -0.36368 -78.36797 12656 ft 252 kts
2026-05-04 23:17 -0.34656 -78.36434 12170 ft 248 kts 16°
2026-05-04 23:17 -0.33039 -78.35877 11683 ft 245 kts 21°
2026-05-04 23:17 -0.31457 -78.35238 11199 ft 242 kts 21°
2026-05-04 23:18 -0.29847 -78.34830 10850 ft 232 kts
2026-05-04 23:18 -0.28270 -78.34749 10801 ft 222 kts
2026-05-04 23:18 -0.26754 -78.34800 10570 ft 212 kts 358°
2026-05-04 23:18 -0.25309 -78.34885 10253 ft 201 kts 358°
2026-05-04 23:19 -0.23963 -78.34956 9953 ft 189 kts 358°
2026-05-04 23:19 -0.22672 -78.35014 9681 ft 181 kts 358°
2026-05-04 23:19 -0.21417 -78.35064 9457 ft 179 kts 358°
2026-05-04 23:19 -0.20175 -78.35111 9230 ft 178 kts 358°
2026-05-04 23:20 -0.18937 -78.35170 8953 ft 178 kts 358°
2026-05-04 23:20 -0.17684 -78.35217 8721 ft 176 kts 358°
2026-05-04 23:20 -0.16462 -78.35277 8492 ft 176 kts 358°
2026-05-04 23:20 -0.15246 -78.35320 8277 ft 175 kts 358°
2026-05-04 23:21 -0.14026 -78.35375 8083 ft 172 kts 357°
2026-05-04 23:21 -0.12920 -78.35422 8078 ft 134 kts 357°
2026-05-04 23:21 -0.12173 -78.35452 8072 ft 81 kts 358°
2026-05-04 23:21 -0.11824 -78.35482 8069 ft 28 kts 345°
2026-05-04 23:22 -0.11677 -78.35545 8068 ft 16 kts 328°
2026-05-04 23:22 -0.11624 -78.35593 8067 ft 7 kts 300°
2026-05-04 23:22 -0.11640 -78.35636 8067 ft 9 kts 209°
2026-05-04 23:22 -0.11715 -78.35642 8068 ft 13 kts 176°
2026-05-04 23:23 -0.11828 -78.35638 8068 ft 20 kts 178°
2026-05-04 23:23 -0.11996 -78.35630 8070 ft 25 kts 177°
2026-05-04 23:23 -0.12174 -78.35622 8071 ft 25 kts 179°
2026-05-04 23:23 -0.12335 -78.35619 8073 ft 11 kts 197°
2026-05-04 23:24 -0.12355 -78.35667 8073 ft 10 kts 263°
2026-05-04 23:24 -0.12362 -78.35771 8072 ft 18 kts 267°
2026-05-04 23:24 -0.12404 -78.35832 8072 ft 5 kts 201°
2026-05-04 23:24 -0.12427 -78.35861 8072 ft 6 kts 251°
2026-05-04 23:25 -0.12432 -78.35894 8072 ft 2 kts 269°
2026-05-04 23:25 -0.12432 -78.35902 8072 ft 0 kts 274°
2026-05-04 23:25 -0.12432 -78.35905 8072 ft 1 kts 269°
2026-05-04 23:25 -0.12432 -78.35913 8072 ft 0 kts 269°
2026-05-04 23:26 -0.12432 -78.35914 8072 ft 0 kts 269°
2026-05-04 23:26 -0.12432 -78.35916 8072 ft 1 kts 269°
2026-05-04 23:26 -0.12432 -78.35919 8072 ft 1 kts 269°
2026-05-04 23:26 -0.12432 -78.35921 8072 ft 0 kts 269°